GEFSMA_prec_meanprecacc_060.txt.gz
Total_Precipitation_Accumulation
0.06 0.08 0.08 0.14 0.10 0.04 0.05 0.08 0.03 0.03 0.05 0.02 0.03 0.04 0.03 0.02 0.06 0.10 0.16 0.33 0.55 0.64 0.49 0.34 0.24 0.19 0.18 0.19 0.21 0.21 0.20 0.20 0.21 0.21 0.19 0.14 0.12 0.12 0.08 0.05 0.08 0.10 0.08
0.05 0.08 0.07 0.08 0.05 0.06 0.08 0.04 0.04 0.05 0.06 0.01 0.01 0.02 0.02 0.01 0.04 0.09 0.20 0.31 0.50 0.76 0.84 0.65 0.51 0.39 0.28 0.23 0.22 0.23 0.21 0.19 0.18 0.20 0.19 0.13 0.10 0.09 0.08 0.06 0.10 0.13 0.12
0.07 0.11 0.09 0.07 0.07 0.09 0.08 0.08 0.10 0.07 0.07 0.02 0.01 0.01 0.02 0.04 0.04 0.04 0.09 0.23 0.31 0.40 0.62 0.75 0.74 0.64 0.44 0.29 0.22 0.18 0.17 0.17 0.17 0.16 0.17 0.13 0.10 0.08 0.07 0.08 0.10 0.10 0.10
0.12 0.19 0.20 0.16 0.18 0.19 0.14 0.11 0.08 0.06 0.08 0.06 0.05 0.03 0.02 0.02 0.03 0.03 0.03 0.04 0.07 0.09 0.16 0.24 0.29 0.39 0.45 0.41 0.32 0.21 0.17 0.14 0.12 0.13 0.12 0.10 0.08 0.07 0.07 0.07 0.07 0.07 0.09
0.33 0.37 0.43 0.34 0.26 0.28 0.24 0.17 0.12 0.15 0.11 0.11 0.08 0.07 0.03 0.01 0.01 0.01 0.01 0.01 0.01 0.03 0.06 0.05 0.08 0.12 0.19 0.25 0.29 0.29 0.23 0.16 0.11 0.10 0.09 0.07 0.06 0.07 0.07 0.07 0.06 0.08 0.09
0.60 0.63 0.67 0.59 0.46 0.44 0.44 0.31 0.29 0.27 0.25 0.23 0.15 0.11 0.06 0.04 0.01 0.01 0.01 0.02 0.02 0.01 0.01 0.01 0.03 0.04 0.05 0.08 0.11 0.17 0.21 0.18 0.13 0.11 0.10 0.08 0.06 0.06 0.07 0.07 0.08 0.08 0.09
0.94 0.97 0.87 0.93 0.86 0.77 0.75 0.61 0.61 0.57 0.43 0.29 0.40 0.39 0.19 0.07 0.04 0.03 0.01 0.01 0.01 0.01 0.00 0.00 0.02 0.03 0.02 0.01 0.03 0.06 0.09 0.12 0.11 0.10 0.09 0.08 0.07 0.06 0.07 0.08 0.09 0.12 0.11
1.34 1.19 1.15 1.24 1.17 1.17 1.21 1.01 0.98 0.93 0.69 0.45 0.63 0.76 0.43 0.23 0.10 0.04 0.03 0.02 0.02 0.02 0.01 0.00 0.00 0.01 0.01 0.01 0.01 0.01 0.03 0.06 0.09 0.09 0.07 0.06 0.06 0.05 0.05 0.06 0.10 0.14 0.12
1.80 1.60 1.46 1.45 1.38 1.34 1.46 1.44 1.32 1.22 1.07 0.80 0.69 0.76 0.64 0.53 0.32 0.09 0.06 0.06 0.06 0.05 0.03 0.01 0.01 0.00 0.00 0.01 0.00 0.00 0.01 0.02 0.05 0.06 0.06 0.06 0.06 0.06 0.05 0.05 0.10 0.12 0.09
1.96 1.85 1.73 1.66 1.54 1.39 1.44 1.51 1.46 1.45 1.45 1.19 0.95 0.74 0.58 0.55 0.49 0.28 0.12 0.09 0.11 0.09 0.08 0.05 0.02 0.01 0.01 0.00 0.00 0.00 0.00 0.01 0.02 0.05 0.06 0.07 0.07 0.07 0.06 0.07 0.11 0.11 0.09
1.73 1.65 1.67 1.70 1.61 1.48 1.46 1.56 1.62 1.65 1.53 1.41 1.23 1.09 0.96 0.83 0.56 0.49 0.38 0.19 0.12 0.12 0.13 0.10 0.06 0.03 0.02 0.01 0.00 0.00 0.00 0.00 0.01 0.03 0.04 0.06 0.08 0.09 0.10 0.10 0.10 0.10 0.12
1.54 1.45 1.50 1.55 1.53 1.47 1.41 1.43 1.51 1.55 1.57 1.57 1.42 1.22 1.12 1.02 0.94 0.83 0.58 0.38 0.24 0.12 0.11 0.11 0.08 0.05 0.03 0.02 0.01 0.01 0.00 0.00 0.01 0.01 0.02 0.03 0.05 0.08 0.10 0.13 0.12 0.10 0.11
1.44 1.38 1.36 1.43 1.47 1.43 1.45 1.49 1.43 1.38 1.45 1.48 1.44 1.34 1.25 1.08 0.96 0.96 0.80 0.58 0.45 0.22 0.09 0.07 0.07 0.05 0.04 0.03 0.02 0.01 0.01 0.01 0.01 0.01 0.01 0.02 0.02 0.04 0.07 0.15 0.20 0.22 0.28
1.04 0.98 1.02 1.11 1.24 1.30 1.34 1.36 1.35 1.30 1.28 1.27 1.30 1.32 1.32 1.27 1.06 0.94 0.90 0.88 0.73 0.52 0.31 0.14 0.09 0.07 0.07 0.05 0.05 0.04 0.03 0.02 0.01 0.01 0.01 0.01 0.02 0.02 0.04 0.08 0.14 0.22 0.43
0.68 0.66 0.69 0.79 0.91 1.02 1.09 1.13 1.18 1.20 1.17 1.13 1.15 1.16 1.12 1.17 1.12 0.96 0.88 0.86 0.87 0.72 0.62 0.44 0.23 0.11 0.09 0.08 0.07 0.06 0.04 0.03 0.02 0.02 0.01 0.01 0.01 0.02 0.02 0.02 0.03 0.05 0.11
0.57 0.58 0.58 0.62 0.69 0.77 0.86 0.91 0.96 1.00 0.95 0.89 0.89 0.89 0.94 1.01 1.08 1.05 1.01 0.95 0.90 0.82 0.72 0.58 0.36 0.17 0.13 0.14 0.13 0.09 0.07 0.06 0.03 0.02 0.01 0.01 0.01 0.01 0.01 0.01 0.01 0.01 0.01
0.59 0.52 0.53 0.60 0.61 0.64 0.67 0.74 0.85 0.95 0.89 0.83 0.74 0.72 0.81 0.88 1.06 1.12 1.10 1.00 0.95 0.88 0.76 0.72 0.52 0.28 0.20 0.19 0.19 0.12 0.08 0.06 0.04 0.03 0.02 0.02 0.02 0.02 0.01 0.01 0.01 0.00 0.00
0.49 0.49 0.54 0.55 0.54 0.57 0.60 0.67 0.77 0.82 0.82 0.74 0.65 0.61 0.65 0.73 0.88 1.03 1.14 1.05 0.98 0.91 0.86 0.83 0.66 0.46 0.34 0.28 0.22 0.16 0.11 0.08 0.07 0.07 0.06 0.04 0.03 0.03 0.02 0.01 0.00 0.00 0.00
0.44 0.50 0.51 0.53 0.53 0.51 0.56 0.60 0.63 0.63 0.56 0.52 0.51 0.50 0.55 0.59 0.67 0.80 0.93 1.02 0.98 0.91 0.94 0.95 0.81 0.62 0.46 0.35 0.29 0.24 0.17 0.14 0.12 0.09 0.09 0.08 0.06 0.05 0.04 0.03 0.02 0.01 0.01
0.37 0.40 0.45 0.45 0.49 0.48 0.49 0.50 0.50 0.55 0.48 0.38 0.33 0.33 0.37 0.40 0.46 0.58 0.71 0.84 0.95 0.98 1.00 1.01 0.94 0.73 0.54 0.40 0.30 0.28 0.29 0.25 0.22 0.16 0.12 0.12 0.11 0.10 0.07 0.06 0.04 0.03 0.02
0.28 0.31 0.41 0.51 0.54 0.53 0.54 0.53 0.45 0.47 0.46 0.41 0.35 0.30 0.25 0.26 0.31 0.38 0.49 0.68 0.81 0.93 1.00 1.05 1.01 0.87 0.70 0.57 0.43 0.36 0.34 0.38 0.38 0.31 0.24 0.21 0.19 0.16 0.13 0.10 0.07 0.05 0.04
0.24 0.27 0.32 0.42 0.54 0.52 0.60 0.59 0.50 0.45 0.46 0.39 0.35 0.36 0.35 0.31 0.23 0.19 0.21 0.32 0.47 0.65 0.81 0.91 0.96 0.87 0.74 0.64 0.58 0.50 0.41 0.36 0.37 0.38 0.36 0.36 0.33 0.29 0.29 0.25 0.22 0.19 0.14
0.26 0.29 0.32 0.41 0.53 0.65 0.62 0.47 0.48 0.45 0.44 0.40 0.33 0.33 0.35 0.34 0.37 0.33 0.27 0.23 0.23 0.31 0.47 0.63 0.71 0.73 0.78 0.67 0.54 0.44 0.38 0.35 0.34 0.35 0.34 0.34 0.35 0.34 0.34 0.34 0.34 0.33 0.29
0.28 0.29 0.33 0.36 0.41 0.54 0.51 0.41 0.52 0.51 0.52 0.50 0.42 0.38 0.40 0.38 0.38 0.50 0.52 0.44 0.36 0.37 0.47 0.38 0.41 0.61 0.66 0.61 0.52 0.45 0.43 0.38 0.32 0.28 0.26 0.30 0.31 0.30 0.26 0.25 0.26 0.26 0.26
0.32 0.31 0.29 0.31 0.34 0.39 0.42 0.36 0.40 0.50 0.58 0.55 0.46 0.44 0.46 0.47 0.59 0.59 0.51 0.48 0.47 0.46 0.64 0.66 0.61 0.56 0.50 0.43 0.41 0.44 0.42 0.37 0.33 0.29 0.25 0.23 0.26 0.31 0.31 0.28 0.26 0.24 0.21
0.40 0.36 0.33 0.30 0.33 0.34 0.42 0.28 0.32 0.43 0.53 0.60 0.56 0.50 0.66 0.61 0.61 0.47 0.34 0.44 0.51 0.50 0.50 0.51 0.51 0.47 0.39 0.33 0.32 0.33 0.40 0.40 0.35 0.33 0.30 0.26 0.25 0.27 0.27 0.27 0.26 0.25 0.23

GEFSMA_prec_meanprecacc_066.txt.gz
Total_Precipitation_Accumulation
0.11 0.11 0.09 0.15 0.11 0.04 0.05 0.08 0.03 0.03 0.05 0.02 0.03 0.04 0.03 0.03 0.06 0.10 0.16 0.33 0.56 0.65 0.51 0.36 0.27 0.21 0.20 0.21 0.23 0.23 0.22 0.22 0.24 0.25 0.22 0.17 0.16 0.13 0.09 0.07 0.10 0.12 0.10
0.11 0.13 0.09 0.09 0.06 0.07 0.09 0.05 0.04 0.05 0.06 0.01 0.01 0.02 0.02 0.02 0.04 0.09 0.20 0.31 0.50 0.76 0.85 0.68 0.53 0.42 0.31 0.24 0.23 0.25 0.23 0.21 0.20 0.22 0.20 0.15 0.13 0.11 0.08 0.07 0.12 0.15 0.14
0.14 0.18 0.14 0.10 0.09 0.10 0.09 0.08 0.10 0.07 0.07 0.02 0.01 0.01 0.02 0.04 0.04 0.04 0.09 0.23 0.31 0.40 0.63 0.77 0.76 0.66 0.47 0.31 0.25 0.20 0.20 0.20 0.19 0.19 0.19 0.15 0.11 0.09 0.08 0.09 0.11 0.12 0.12
0.23 0.30 0.29 0.23 0.22 0.21 0.15 0.12 0.08 0.07 0.08 0.06 0.05 0.03 0.02 0.02 0.04 0.03 0.03 0.04 0.07 0.09 0.16 0.24 0.31 0.41 0.47 0.43 0.34 0.24 0.20 0.16 0.14 0.15 0.15 0.12 0.09 0.08 0.08 0.08 0.08 0.09 0.10
0.47 0.51 0.54 0.43 0.32 0.33 0.28 0.19 0.14 0.15 0.11 0.12 0.09 0.08 0.03 0.02 0.01 0.01 0.01 0.01 0.01 0.03 0.06 0.06 0.08 0.12 0.20 0.26 0.31 0.31 0.25 0.18 0.13 0.12 0.11 0.09 0.08 0.08 0.08 0.08 0.07 0.09 0.10
0.78 0.80 0.80 0.72 0.59 0.54 0.51 0.37 0.34 0.30 0.27 0.25 0.17 0.12 0.07 0.04 0.02 0.02 0.02 0.02 0.02 0.01 0.01 0.01 0.03 0.04 0.05 0.08 0.11 0.18 0.22 0.19 0.15 0.13 0.11 0.09 0.07 0.07 0.08 0.08 0.09 0.09 0.10
1.17 1.18 1.06 1.13 1.04 0.91 0.87 0.71 0.69 0.64 0.48 0.31 0.45 0.46 0.22 0.09 0.05 0.04 0.03 0.01 0.01 0.01 0.01 0.00 0.02 0.03 0.02 0.02 0.03 0.06 0.10 0.12 0.12 0.11 0.10 0.09 0.08 0.07 0.08 0.09 0.10 0.13 0.13
1.58 1.43 1.38 1.48 1.43 1.42 1.44 1.18 1.10 1.03 0.77 0.50 0.71 0.88 0.54 0.30 0.13 0.05 0.04 0.03 0.03 0.03 0.02 0.01 0.01 0.01 0.01 0.01 0.01 0.01 0.03 0.06 0.09 0.09 0.08 0.07 0.07 0.06 0.06 0.07 0.11 0.15 0.13
2.00 1.85 1.75 1.74 1.64 1.60 1.72 1.68 1.51 1.38 1.21 0.90 0.78 0.89 0.78 0.64 0.41 0.13 0.07 0.07 0.07 0.06 0.05 0.03 0.01 0.01 0.00 0.01 0.01 0.00 0.01 0.02 0.05 0.07 0.07 0.06 0.07 0.06 0.05 0.06 0.11 0.13 0.10
2.15 2.07 1.98 1.95 1.84 1.66 1.67 1.72 1.65 1.63 1.64 1.35 1.08 0.86 0.69 0.67 0.61 0.36 0.16 0.10 0.13 0.12 0.11 0.07 0.04 0.02 0.01 0.00 0.01 0.00 0.00 0.01 0.02 0.05 0.07 0.07 0.08 0.07 0.06 0.07 0.11 0.12 0.10
1.85 1.82 1.89 1.96 1.85 1.72 1.67 1.77 1.81 1.84 1.71 1.58 1.39 1.25 1.09 0.92 0.64 0.58 0.45 0.23 0.15 0.14 0.15 0.13 0.10 0.07 0.04 0.03 0.03 0.01 0.00 0.00 0.01 0.03 0.04 0.07 0.09 0.10 0.11 0.11 0.10 0.11 0.12
1.61 1.57 1.64 1.73 1.76 1.69 1.60 1.58 1.65 1.71 1.71 1.72 1.59 1.40 1.30 1.18 1.07 0.94 0.67 0.45 0.30 0.16 0.14 0.14 0.12 0.10 0.07 0.04 0.03 0.02 0.00 0.00 0.01 0.02 0.02 0.03 0.05 0.08 0.11 0.13 0.12 0.11 0.11
1.50 1.46 1.45 1.53 1.60 1.56 1.58 1.62 1.57 1.53 1.59 1.62 1.59 1.50 1.43 1.24 1.10 1.10 0.91 0.68 0.53 0.28 0.12 0.09 0.10 0.10 0.09 0.06 0.04 0.04 0.02 0.01 0.01 0.01 0.02 0.02 0.03 0.04 0.07 0.15 0.20 0.22 0.28
1.12 1.07 1.10 1.19 1.34 1.41 1.47 1.51 1.50 1.46 1.44 1.41 1.45 1.47 1.47 1.39 1.17 1.05 1.01 0.99 0.83 0.60 0.36 0.18 0.12 0.11 0.11 0.09 0.08 0.08 0.04 0.03 0.02 0.01 0.01 0.01 0.02 0.03 0.04 0.08 0.14 0.22 0.43
0.79 0.77 0.78 0.88 1.01 1.12 1.19 1.24 1.31 1.33 1.32 1.27 1.29 1.30 1.26 1.31 1.24 1.07 0.99 0.98 0.99 0.83 0.71 0.51 0.28 0.15 0.14 0.12 0.11 0.08 0.06 0.05 0.04 0.03 0.02 0.01 0.01 0.02 0.02 0.03 0.03 0.05 0.11
0.67 0.69 0.67 0.70 0.76 0.84 0.93 0.99 1.06 1.12 1.09 1.03 1.03 1.04 1.09 1.17 1.23 1.19 1.13 1.06 1.03 0.94 0.84 0.67 0.43 0.23 0.18 0.19 0.18 0.12 0.11 0.09 0.05 0.04 0.03 0.02 0.01 0.01 0.01 0.01 0.01 0.01 0.01
0.66 0.60 0.60 0.67 0.67 0.70 0.73 0.80 0.92 1.03 0.98 0.94 0.87 0.86 0.95 1.01 1.18 1.24 1.19 1.09 1.04 0.98 0.87 0.81 0.59 0.34 0.24 0.22 0.22 0.15 0.11 0.10 0.07 0.04 0.03 0.03 0.02 0.02 0.01 0.01 0.01 0.00 0.01
0.55 0.55 0.61 0.62 0.60 0.62 0.64 0.73 0.85 0.90 0.91 0.83 0.76 0.72 0.76 0.83 0.97 1.11 1.20 1.11 1.05 0.98 0.96 0.92 0.73 0.50 0.37 0.30 0.24 0.18 0.13 0.11 0.11 0.09 0.08 0.06 0.04 0.04 0.02 0.01 0.01 0.01 0.01
0.50 0.56 0.55 0.59 0.58 0.56 0.61 0.66 0.70 0.71 0.64 0.60 0.60 0.60 0.63 0.68 0.76 0.88 1.01 1.09 1.04 0.97 1.00 1.02 0.86 0.65 0.48 0.36 0.31 0.26 0.19 0.17 0.15 0.12 0.11 0.09 0.07 0.05 0.04 0.03 0.02 0.02 0.01
0.41 0.45 0.50 0.52 0.55 0.53 0.53 0.55 0.56 0.62 0.55 0.47 0.41 0.41 0.45 0.48 0.54 0.66 0.78 0.90 1.00 1.03 1.04 1.06 0.98 0.75 0.56 0.42 0.32 0.30 0.31 0.26 0.24 0.18 0.14 0.13 0.12 0.10 0.08 0.07 0.05 0.04 0.03
0.31 0.35 0.45 0.56 0.61 0.59 0.60 0.59 0.51 0.53 0.54 0.51 0.44 0.38 0.33 0.34 0.39 0.45 0.55 0.74 0.87 0.98 1.05 1.09 1.05 0.90 0.72 0.58 0.44 0.37 0.36 0.40 0.40 0.32 0.26 0.22 0.21 0.17 0.15 0.11 0.08 0.06 0.05
0.26 0.29 0.34 0.44 0.58 0.57 0.67 0.65 0.56 0.51 0.52 0.49 0.46 0.47 0.46 0.41 0.32 0.25 0.25 0.37 0.53 0.71 0.86 0.96 1.00 0.91 0.76 0.66 0.59 0.51 0.43 0.38 0.39 0.38 0.37 0.37 0.34 0.31 0.30 0.27 0.24 0.20 0.15
0.27 0.29 0.34 0.43 0.57 0.70 0.67 0.53 0.57 0.54 0.50 0.48 0.43 0.43 0.46 0.45 0.49 0.42 0.33 0.28 0.29 0.37 0.53 0.68 0.75 0.76 0.81 0.69 0.56 0.45 0.39 0.36 0.35 0.35 0.35 0.36 0.36 0.35 0.35 0.36 0.37 0.35 0.32
0.28 0.30 0.34 0.38 0.43 0.57 0.55 0.46 0.58 0.58 0.58 0.56 0.50 0.48 0.51 0.49 0.48 0.59 0.58 0.50 0.42 0.41 0.51 0.40 0.43 0.63 0.68 0.63 0.54 0.46 0.43 0.38 0.32 0.28 0.28 0.31 0.32 0.31 0.27 0.26 0.27 0.27 0.27
0.32 0.31 0.31 0.33 0.35 0.41 0.45 0.39 0.45 0.55 0.63 0.60 0.52 0.51 0.54 0.53 0.65 0.67 0.58 0.55 0.52 0.49 0.67 0.68 0.63 0.57 0.51 0.44 0.42 0.45 0.43 0.38 0.35 0.30 0.26 0.25 0.27 0.32 0.32 0.29 0.27 0.25 0.23
0.40 0.36 0.34 0.32 0.35 0.36 0.45 0.31 0.36 0.47 0.56 0.64 0.59 0.54 0.71 0.66 0.65 0.54 0.40 0.50 0.57 0.54 0.52 0.52 0.52 0.48 0.40 0.34 0.33 0.34 0.42 0.42 0.37 0.35 0.31 0.27 0.27 0.29 0.31 0.29 0.28 0.27 0.25

GEFSMA_prec_meanprecacc_072.txt.gz
Total_Precipitation_Accumulation
0.22 0.20 0.13 0.17 0.13 0.05 0.06 0.08 0.04 0.03 0.05 0.02 0.03 0.05 0.03 0.03 0.06 0.11 0.16 0.33 0.56 0.66 0.53 0.37 0.28 0.23 0.22 0.22 0.25 0.24 0.23 0.24 0.26 0.28 0.25 0.19 0.19 0.17 0.11 0.08 0.12 0.14 0.11
0.22 0.23 0.14 0.13 0.08 0.08 0.10 0.05 0.04 0.05 0.06 0.01 0.01 0.02 0.02 0.02 0.04 0.10 0.20 0.31 0.50 0.77 0.87 0.69 0.54 0.43 0.33 0.26 0.26 0.27 0.25 0.22 0.22 0.24 0.22 0.17 0.16 0.14 0.10 0.08 0.13 0.16 0.15
0.27 0.32 0.25 0.17 0.12 0.12 0.10 0.09 0.11 0.07 0.07 0.02 0.01 0.01 0.02 0.04 0.04 0.04 0.09 0.23 0.31 0.40 0.64 0.78 0.78 0.68 0.49 0.34 0.27 0.22 0.21 0.21 0.19 0.20 0.20 0.16 0.14 0.11 0.09 0.09 0.12 0.13 0.13
0.39 0.49 0.45 0.32 0.27 0.25 0.18 0.14 0.09 0.07 0.08 0.06 0.05 0.03 0.02 0.02 0.04 0.03 0.03 0.05 0.07 0.10 0.16 0.25 0.31 0.43 0.49 0.45 0.36 0.26 0.21 0.16 0.14 0.15 0.16 0.13 0.10 0.09 0.09 0.09 0.09 0.10 0.11
0.63 0.74 0.74 0.57 0.42 0.43 0.35 0.23 0.16 0.16 0.12 0.13 0.09 0.08 0.03 0.02 0.02 0.02 0.02 0.02 0.02 0.03 0.06 0.06 0.08 0.13 0.21 0.27 0.33 0.32 0.26 0.18 0.13 0.12 0.11 0.09 0.08 0.09 0.09 0.09 0.08 0.10 0.11
0.93 1.02 1.01 0.89 0.74 0.69 0.63 0.44 0.39 0.34 0.29 0.28 0.18 0.13 0.08 0.05 0.02 0.02 0.02 0.02 0.02 0.01 0.02 0.01 0.03 0.04 0.05 0.09 0.13 0.20 0.23 0.19 0.15 0.13 0.12 0.10 0.08 0.07 0.08 0.09 0.09 0.10 0.10
1.33 1.37 1.24 1.35 1.30 1.13 1.04 0.85 0.82 0.76 0.55 0.35 0.51 0.52 0.26 0.11 0.06 0.05 0.04 0.02 0.02 0.02 0.01 0.01 0.02 0.03 0.02 0.02 0.03 0.06 0.10 0.13 0.13 0.11 0.11 0.10 0.08 0.08 0.08 0.09 0.10 0.13 0.13
1.70 1.58 1.55 1.68 1.66 1.65 1.64 1.35 1.29 1.22 0.88 0.56 0.82 1.04 0.68 0.42 0.19 0.09 0.07 0.05 0.04 0.04 0.03 0.02 0.01 0.01 0.01 0.02 0.01 0.01 0.03 0.07 0.10 0.10 0.09 0.08 0.07 0.07 0.06 0.07 0.11 0.15 0.14
2.09 1.95 1.88 1.92 1.86 1.82 1.92 1.86 1.69 1.60 1.40 1.02 0.89 1.05 0.95 0.81 0.57 0.18 0.10 0.10 0.10 0.10 0.08 0.06 0.04 0.02 0.01 0.02 0.01 0.00 0.01 0.02 0.05 0.07 0.07 0.06 0.07 0.07 0.06 0.06 0.11 0.14 0.11
2.22 2.16 2.10 2.11 2.04 1.90 1.89 1.92 1.84 1.85 1.88 1.55 1.24 1.01 0.84 0.83 0.80 0.51 0.24 0.15 0.19 0.20 0.17 0.11 0.06 0.04 0.04 0.03 0.04 0.02 0.01 0.01 0.02 0.05 0.07 0.08 0.08 0.08 0.07 0.08 0.12 0.12 0.10
1.90 1.89 1.99 2.09 2.04 1.97 1.93 2.01 2.03 2.06 1.93 1.77 1.57 1.43 1.29 1.10 0.80 0.75 0.63 0.38 0.26 0.24 0.23 0.19 0.15 0.10 0.07 0.07 0.10 0.05 0.03 0.01 0.01 0.03 0.05 0.07 0.09 0.10 0.11 0.11 0.11 0.11 0.13
1.68 1.64 1.72 1.82 1.88 1.87 1.84 1.81 1.86 1.90 1.91 1.91 1.76 1.56 1.47 1.36 1.24 1.11 0.83 0.62 0.48 0.29 0.23 0.20 0.19 0.17 0.15 0.13 0.14 0.13 0.07 0.03 0.01 0.02 0.03 0.04 0.06 0.09 0.11 0.14 0.12 0.11 0.11
1.59 1.55 1.54 1.63 1.70 1.69 1.73 1.81 1.73 1.69 1.75 1.79 1.74 1.65 1.59 1.42 1.27 1.26 1.07 0.83 0.69 0.42 0.25 0.19 0.16 0.15 0.17 0.15 0.18 0.16 0.08 0.07 0.03 0.02 0.02 0.03 0.04 0.05 0.08 0.16 0.21 0.22 0.28
1.21 1.17 1.22 1.33 1.50 1.58 1.64 1.70 1.68 1.61 1.58 1.55 1.57 1.59 1.58 1.52 1.31 1.19 1.15 1.15 1.00 0.76 0.52 0.32 0.21 0.17 0.15 0.14 0.19 0.20 0.10 0.08 0.05 0.03 0.02 0.02 0.03 0.04 0.05 0.09 0.15 0.23 0.44
0.88 0.88 0.92 1.04 1.19 1.32 1.38 1.42 1.49 1.49 1.46 1.41 1.42 1.42 1.39 1.43 1.36 1.19 1.11 1.09 1.13 0.98 0.88 0.68 0.42 0.23 0.19 0.17 0.19 0.16 0.13 0.10 0.08 0.06 0.04 0.02 0.02 0.03 0.03 0.04 0.04 0.06 0.11
0.79 0.83 0.81 0.84 0.93 1.02 1.12 1.19 1.26 1.31 1.25 1.18 1.17 1.19 1.25 1.31 1.36 1.33 1.28 1.21 1.18 1.08 0.99 0.82 0.56 0.32 0.25 0.24 0.23 0.19 0.18 0.19 0.13 0.08 0.06 0.04 0.03 0.02 0.02 0.02 0.02 0.01 0.02
0.76 0.74 0.78 0.82 0.80 0.87 0.92 0.98 1.09 1.19 1.14 1.10 1.03 1.02 1.12 1.16 1.33 1.40 1.35 1.25 1.20 1.12 1.01 0.95 0.71 0.44 0.33 0.30 0.29 0.23 0.20 0.19 0.17 0.12 0.07 0.06 0.05 0.04 0.03 0.02 0.02 0.01 0.01
0.65 0.71 0.79 0.76 0.73 0.76 0.78 0.87 0.98 1.03 1.03 0.95 0.87 0.86 0.93 0.99 1.13 1.26 1.36 1.27 1.21 1.13 1.10 1.06 0.87 0.64 0.50 0.42 0.34 0.27 0.21 0.19 0.21 0.18 0.13 0.09 0.07 0.07 0.05 0.03 0.02 0.02 0.01
0.57 0.67 0.72 0.77 0.72 0.66 0.71 0.76 0.82 0.83 0.75 0.69 0.68 0.69 0.73 0.79 0.89 1.02 1.15 1.24 1.21 1.13 1.16 1.17 0.99 0.76 0.58 0.46 0.42 0.36 0.27 0.26 0.21 0.19 0.17 0.14 0.11 0.09 0.07 0.05 0.05 0.04 0.03
0.48 0.52 0.58 0.62 0.66 0.62 0.60 0.62 0.64 0.72 0.66 0.55 0.48 0.47 0.52 0.56 0.62 0.75 0.88 1.03 1.14 1.18 1.21 1.21 1.10 0.84 0.64 0.49 0.43 0.43 0.43 0.37 0.32 0.23 0.19 0.18 0.16 0.14 0.10 0.09 0.07 0.05 0.04
0.36 0.41 0.52 0.64 0.69 0.66 0.66 0.66 0.58 0.60 0.64 0.61 0.53 0.45 0.41 0.41 0.46 0.53 0.64 0.83 0.97 1.09 1.17 1.20 1.15 0.98 0.79 0.65 0.51 0.46 0.46 0.49 0.48 0.40 0.34 0.28 0.27 0.23 0.19 0.13 0.09 0.07 0.06
0.30 0.33 0.40 0.50 0.64 0.63 0.73 0.72 0.64 0.59 0.60 0.58 0.56 0.57 0.56 0.50 0.39 0.31 0.31 0.43 0.60 0.79 0.96 1.05 1.09 0.99 0.83 0.72 0.66 0.57 0.50 0.45 0.46 0.46 0.47 0.46 0.42 0.37 0.34 0.29 0.25 0.20 0.16
0.30 0.32 0.36 0.46 0.60 0.74 0.71 0.57 0.64 0.62 0.58 0.57 0.52 0.52 0.58 0.57 0.60 0.49 0.38 0.32 0.34 0.44 0.61 0.77 0.83 0.82 0.87 0.77 0.63 0.51 0.46 0.43 0.40 0.38 0.40 0.41 0.41 0.40 0.38 0.38 0.38 0.35 0.32
0.31 0.33 0.36 0.40 0.45 0.59 0.57 0.48 0.64 0.63 0.64 0.63 0.58 0.57 0.61 0.61 0.60 0.71 0.68 0.59 0.50 0.48 0.57 0.46 0.49 0.67 0.72 0.69 0.61 0.53 0.49 0.43 0.35 0.30 0.30 0.35 0.36 0.35 0.30 0.28 0.29 0.28 0.27
0.34 0.34 0.33 0.35 0.37 0.42 0.47 0.42 0.51 0.62 0.69 0.68 0.60 0.58 0.62 0.59 0.73 0.78 0.70 0.66 0.62 0.56 0.72 0.74 0.69 0.61 0.55 0.49 0.48 0.51 0.49 0.44 0.40 0.33 0.29 0.28 0.31 0.35 0.35 0.31 0.28 0.26 0.23
0.41 0.38 0.36 0.34 0.36 0.37 0.47 0.33 0.41 0.55 0.64 0.71 0.66 0.59 0.76 0.71 0.70 0.62 0.51 0.62 0.68 0.62 0.57 0.57 0.57 0.52 0.44 0.39 0.38 0.39 0.47 0.47 0.42 0.40 0.34 0.31 0.32 0.34 0.34 0.32 0.29 0.28 0.26

GEFSMA_prec_meanprecacc_078.txt.gz
Total_Precipitation_Accumulation
0.34 0.30 0.21 0.24 0.19 0.09 0.08 0.09 0.04 0.03 0.05 0.02 0.05 0.06 0.04 0.05 0.10 0.13 0.17 0.35 0.57 0.67 0.55 0.39 0.30 0.24 0.23 0.24 0.27 0.25 0.24 0.24 0.26 0.29 0.26 0.20 0.22 0.19 0.13 0.11 0.15 0.16 0.13
0.37 0.38 0.28 0.27 0.20 0.21 0.21 0.10 0.06 0.06 0.07 0.02 0.01 0.03 0.03 0.03 0.06 0.12 0.20 0.32 0.51 0.78 0.89 0.70 0.56 0.45 0.34 0.28 0.27 0.28 0.26 0.23 0.23 0.26 0.23 0.18 0.18 0.17 0.12 0.11 0.16 0.18 0.17
0.44 0.51 0.47 0.37 0.31 0.31 0.27 0.20 0.17 0.10 0.09 0.03 0.02 0.02 0.02 0.05 0.05 0.05 0.10 0.24 0.31 0.41 0.65 0.81 0.80 0.70 0.52 0.36 0.28 0.22 0.22 0.22 0.20 0.21 0.20 0.17 0.15 0.13 0.11 0.11 0.14 0.14 0.14
0.53 0.68 0.69 0.54 0.47 0.44 0.36 0.31 0.21 0.13 0.11 0.08 0.06 0.04 0.03 0.03 0.05 0.04 0.05 0.06 0.08 0.10 0.17 0.26 0.34 0.45 0.52 0.48 0.38 0.27 0.21 0.17 0.15 0.16 0.16 0.14 0.11 0.11 0.11 0.11 0.10 0.10 0.12
0.74 0.90 0.94 0.79 0.66 0.66 0.54 0.40 0.31 0.29 0.18 0.17 0.12 0.10 0.05 0.03 0.02 0.03 0.03 0.04 0.03 0.04 0.07 0.06 0.09 0.14 0.23 0.30 0.35 0.34 0.27 0.19 0.14 0.13 0.11 0.10 0.08 0.09 0.10 0.09 0.08 0.10 0.12
1.01 1.12 1.19 1.12 1.02 0.99 0.88 0.66 0.60 0.52 0.43 0.38 0.25 0.18 0.11 0.08 0.05 0.03 0.04 0.05 0.04 0.03 0.03 0.02 0.04 0.05 0.06 0.11 0.15 0.21 0.24 0.20 0.16 0.14 0.13 0.10 0.08 0.08 0.08 0.09 0.10 0.10 0.11
1.41 1.48 1.40 1.59 1.61 1.49 1.34 1.14 1.08 1.00 0.75 0.51 0.63 0.62 0.33 0.16 0.11 0.09 0.06 0.05 0.05 0.05 0.04 0.03 0.03 0.03 0.03 0.03 0.04 0.07 0.11 0.13 0.13 0.12 0.12 0.10 0.09 0.08 0.09 0.10 0.11 0.14 0.14
1.76 1.66 1.68 1.85 1.87 1.91 1.92 1.63 1.56 1.49 1.14 0.77 0.97 1.17 0.77 0.48 0.24 0.13 0.11 0.09 0.09 0.10 0.09 0.07 0.05 0.03 0.02 0.02 0.01 0.02 0.04 0.08 0.11 0.10 0.09 0.08 0.08 0.08 0.07 0.08 0.12 0.16 0.14
2.15 2.02 1.95 2.01 2.00 2.02 2.14 2.10 1.91 1.82 1.62 1.24 1.07 1.20 1.04 0.85 0.62 0.24 0.16 0.17 0.18 0.18 0.16 0.13 0.11 0.09 0.06 0.04 0.02 0.01 0.02 0.03 0.07 0.08 0.08 0.07 0.08 0.07 0.06 0.07 0.12 0.14 0.12
2.27 2.22 2.17 2.19 2.14 2.05 2.08 2.12 2.04 2.07 2.09 1.76 1.45 1.17 0.96 0.90 0.85 0.55 0.30 0.24 0.28 0.30 0.27 0.19 0.15 0.14 0.11 0.08 0.07 0.03 0.02 0.02 0.05 0.08 0.09 0.09 0.09 0.08 0.07 0.08 0.13 0.13 0.11
1.95 1.94 2.05 2.17 2.13 2.09 2.06 2.18 2.22 2.29 2.16 1.98 1.76 1.61 1.43 1.20 0.88 0.81 0.68 0.46 0.37 0.35 0.37 0.33 0.27 0.23 0.16 0.17 0.19 0.12 0.07 0.03 0.03 0.06 0.08 0.09 0.11 0.12 0.12 0.12 0.12 0.12 0.14
1.73 1.68 1.77 1.86 1.93 1.94 1.94 1.94 2.03 2.11 2.13 2.14 1.94 1.71 1.60 1.46 1.32 1.19 0.89 0.68 0.58 0.42 0.38 0.36 0.34 0.35 0.32 0.28 0.27 0.24 0.14 0.08 0.04 0.05 0.07 0.08 0.09 0.12 0.13 0.15 0.14 0.13 0.14
1.64 1.59 1.57 1.65 1.73 1.74 1.81 1.93 1.88 1.85 1.93 2.00 1.94 1.80 1.72 1.54 1.37 1.36 1.16 0.90 0.77 0.53 0.40 0.37 0.34 0.31 0.33 0.34 0.36 0.31 0.18 0.16 0.09 0.05 0.05 0.06 0.07 0.08 0.11 0.18 0.23 0.25 0.31
1.29 1.24 1.27 1.38 1.55 1.64 1.72 1.79 1.79 1.74 1.72 1.71 1.74 1.75 1.73 1.64 1.41 1.28 1.24 1.24 1.06 0.84 0.62 0.46 0.37 0.33 0.30 0.28 0.34 0.36 0.21 0.16 0.13 0.09 0.06 0.05 0.06 0.07 0.09 0.13 0.21 0.28 0.48
0.96 0.97 1.00 1.13 1.29 1.42 1.46 1.51 1.59 1.61 1.59 1.54 1.58 1.59 1.54 1.57 1.48 1.29 1.19 1.16 1.19 1.03 0.93 0.75 0.52 0.37 0.35 0.31 0.31 0.28 0.24 0.17 0.14 0.13 0.10 0.06 0.05 0.05 0.06 0.08 0.08 0.09 0.14
0.86 0.90 0.90 0.95 1.04 1.14 1.24 1.32 1.39 1.46 1.41 1.36 1.37 1.39 1.43 1.46 1.50 1.45 1.37 1.28 1.23 1.13 1.03 0.86 0.62 0.41 0.40 0.41 0.38 0.30 0.29 0.28 0.20 0.15 0.12 0.10 0.08 0.06 0.05 0.05 0.05 0.03 0.03
0.83 0.86 0.90 0.92 0.92 1.01 1.05 1.12 1.22 1.31 1.28 1.25 1.20 1.20 1.30 1.33 1.46 1.51 1.44 1.33 1.26 1.17 1.05 0.98 0.74 0.49 0.41 0.42 0.43 0.37 0.32 0.28 0.25 0.21 0.16 0.13 0.12 0.11 0.10 0.07 0.06 0.04 0.03
0.70 0.78 0.86 0.85 0.83 0.88 0.93 1.01 1.11 1.15 1.16 1.09 1.02 1.00 1.08 1.14 1.26 1.38 1.45 1.35 1.28 1.19 1.16 1.12 0.92 0.68 0.55 0.48 0.43 0.38 0.32 0.30 0.30 0.30 0.24 0.20 0.18 0.17 0.16 0.14 0.11 0.08 0.06
0.65 0.75 0.82 0.90 0.81 0.73 0.80 0.87 0.93 0.95 0.89 0.82 0.81 0.82 0.87 0.92 1.00 1.12 1.24 1.32 1.28 1.20 1.24 1.23 1.06 0.82 0.64 0.53 0.50 0.44 0.36 0.36 0.32 0.29 0.26 0.24 0.21 0.19 0.17 0.16 0.15 0.13 0.09
0.52 0.56 0.65 0.73 0.75 0.69 0.68 0.70 0.73 0.82 0.78 0.68 0.59 0.57 0.62 0.66 0.70 0.83 0.97 1.11 1.22 1.26 1.29 1.31 1.20 0.95 0.74 0.60 0.54 0.54 0.54 0.47 0.42 0.33 0.29 0.28 0.28 0.25 0.19 0.16 0.13 0.10 0.08
0.39 0.44 0.57 0.71 0.76 0.72 0.72 0.74 0.69 0.71 0.73 0.70 0.61 0.53 0.48 0.47 0.52 0.59 0.71 0.92 1.05 1.17 1.25 1.29 1.24 1.09 0.90 0.77 0.63 0.58 0.59 0.60 0.60 0.50 0.45 0.38 0.35 0.29 0.24 0.18 0.13 0.10 0.08
0.33 0.36 0.43 0.55 0.68 0.67 0.79 0.81 0.76 0.69 0.69 0.66 0.63 0.64 0.62 0.55 0.44 0.37 0.39 0.51 0.69 0.88 1.04 1.12 1.16 1.07 0.91 0.81 0.75 0.67 0.58 0.54 0.57 0.56 0.57 0.58 0.51 0.43 0.38 0.32 0.27 0.22 0.17
0.32 0.35 0.40 0.50 0.63 0.77 0.74 0.61 0.69 0.67 0.64 0.62 0.58 0.60 0.65 0.64 0.66 0.54 0.44 0.39 0.41 0.52 0.68 0.84 0.89 0.88 0.93 0.83 0.70 0.58 0.51 0.47 0.45 0.44 0.46 0.49 0.48 0.45 0.41 0.40 0.40 0.36 0.33
0.33 0.35 0.38 0.43 0.48 0.62 0.61 0.51 0.67 0.67 0.67 0.66 0.62 0.62 0.68 0.71 0.69 0.77 0.73 0.64 0.56 0.55 0.63 0.51 0.53 0.72 0.77 0.74 0.66 0.59 0.55 0.49 0.41 0.35 0.35 0.40 0.40 0.38 0.32 0.30 0.31 0.29 0.28
0.35 0.35 0.35 0.36 0.38 0.44 0.49 0.44 0.53 0.65 0.73 0.73 0.64 0.61 0.66 0.66 0.82 0.87 0.76 0.71 0.66 0.61 0.78 0.78 0.72 0.66 0.59 0.53 0.52 0.56 0.55 0.50 0.45 0.38 0.33 0.31 0.33 0.37 0.37 0.32 0.30 0.28 0.24
0.42 0.38 0.36 0.35 0.37 0.38 0.48 0.34 0.43 0.57 0.69 0.77 0.70 0.62 0.80 0.76 0.76 0.69 0.56 0.66 0.71 0.66 0.61 0.61 0.61 0.57 0.49 0.43 0.43 0.45 0.53 0.52 0.47 0.45 0.38 0.33 0.34 0.36 0.36 0.33 0.30 0.29 0.27

GEFSMA_prec_meanprecacc_084.txt.gz
Total_Precipitation_Accumulation
0.48 0.43 0.32 0.33 0.27 0.17 0.16 0.14 0.07 0.06 0.06 0.03 0.05 0.06 0.04 0.05 0.10 0.13 0.18 0.36 0.61 0.71 0.59 0.42 0.34 0.27 0.26 0.26 0.28 0.27 0.26 0.26 0.28 0.31 0.29 0.24 0.26 0.24 0.18 0.15 0.19 0.19 0.17
0.47 0.51 0.43 0.41 0.31 0.30 0.32 0.20 0.12 0.10 0.08 0.02 0.01 0.03 0.03 0.04 0.07 0.12 0.21 0.33 0.54 0.81 0.92 0.74 0.59 0.49 0.37 0.30 0.29 0.30 0.28 0.25 0.24 0.28 0.26 0.20 0.21 0.20 0.15 0.14 0.19 0.21 0.20
0.50 0.59 0.56 0.48 0.42 0.43 0.40 0.35 0.30 0.18 0.12 0.05 0.03 0.02 0.03 0.05 0.06 0.06 0.11 0.24 0.32 0.43 0.69 0.85 0.84 0.75 0.56 0.39 0.31 0.25 0.24 0.24 0.23 0.24 0.23 0.19 0.17 0.15 0.13 0.14 0.17 0.16 0.16
0.58 0.74 0.75 0.60 0.57 0.57 0.52 0.49 0.40 0.27 0.18 0.12 0.09 0.06 0.04 0.04 0.06 0.06 0.06 0.07 0.08 0.10 0.18 0.29 0.38 0.50 0.57 0.53 0.43 0.30 0.24 0.19 0.17 0.19 0.19 0.16 0.12 0.12 0.12 0.12 0.12 0.12 0.14
0.78 0.94 0.99 0.86 0.76 0.79 0.70 0.57 0.50 0.46 0.31 0.25 0.18 0.15 0.09 0.06 0.05 0.05 0.05 0.05 0.04 0.04 0.07 0.08 0.12 0.17 0.29 0.36 0.41 0.39 0.30 0.20 0.15 0.15 0.14 0.11 0.09 0.10 0.11 0.11 0.10 0.12 0.14
1.04 1.17 1.25 1.21 1.12 1.11 1.03 0.83 0.78 0.71 0.60 0.53 0.38 0.28 0.18 0.13 0.10 0.07 0.08 0.08 0.06 0.03 0.04 0.03 0.06 0.06 0.09 0.15 0.21 0.27 0.28 0.23 0.17 0.15 0.15 0.12 0.09 0.09 0.10 0.11 0.11 0.12 0.13
1.43 1.51 1.45 1.67 1.70 1.61 1.53 1.39 1.33 1.24 0.96 0.70 0.82 0.78 0.46 0.26 0.19 0.16 0.13 0.09 0.08 0.06 0.05 0.04 0.05 0.04 0.04 0.05 0.07 0.12 0.17 0.18 0.16 0.13 0.13 0.12 0.10 0.10 0.10 0.11 0.12 0.15 0.15
1.77 1.68 1.71 1.89 1.92 1.98 2.03 1.78 1.75 1.71 1.38 0.99 1.17 1.37 0.94 0.62 0.32 0.21 0.18 0.14 0.13 0.12 0.11 0.08 0.07 0.04 0.03 0.03 0.02 0.05 0.09 0.13 0.14 0.13 0.11 0.11 0.10 0.09 0.08 0.09 0.12 0.17 0.15
2.16 2.04 1.97 2.05 2.04 2.08 2.21 2.19 2.05 2.01 1.85 1.49 1.31 1.42 1.24 1.01 0.74 0.32 0.24 0.23 0.23 0.21 0.20 0.17 0.14 0.11 0.08 0.06 0.03 0.02 0.04 0.07 0.12 0.13 0.11 0.10 0.10 0.09 0.08 0.08 0.13 0.16 0.12
2.30 2.26 2.21 2.24 2.20 2.11 2.15 2.21 2.16 2.23 2.30 1.98 1.66 1.36 1.13 1.07 1.01 0.66 0.38 0.31 0.35 0.35 0.31 0.23 0.19 0.18 0.16 0.12 0.10 0.05 0.03 0.04 0.09 0.14 0.14 0.13 0.12 0.10 0.09 0.10 0.14 0.14 0.13
1.98 1.98 2.09 2.21 2.19 2.15 2.12 2.25 2.33 2.42 2.33 2.17 1.94 1.77 1.59 1.35 1.01 0.93 0.80 0.55 0.44 0.39 0.41 0.37 0.32 0.28 0.22 0.22 0.23 0.16 0.09 0.05 0.05 0.11 0.14 0.16 0.17 0.16 0.15 0.15 0.14 0.14 0.17
1.75 1.71 1.81 1.90 1.97 1.99 1.99 1.99 2.09 2.20 2.26 2.30 2.13 1.89 1.77 1.62 1.46 1.31 0.99 0.77 0.67 0.51 0.45 0.42 0.40 0.40 0.37 0.34 0.33 0.30 0.20 0.13 0.07 0.08 0.11 0.15 0.17 0.19 0.19 0.20 0.18 0.16 0.17
1.66 1.63 1.60 1.68 1.76 1.76 1.85 1.98 1.92 1.91 2.02 2.13 2.09 1.97 1.88 1.68 1.53 1.52 1.29 0.99 0.85 0.61 0.48 0.43 0.40 0.39 0.40 0.41 0.44 0.39 0.25 0.21 0.13 0.08 0.09 0.11 0.13 0.15 0.17 0.24 0.28 0.29 0.34
1.33 1.29 1.32 1.42 1.58 1.67 1.75 1.83 1.83 1.79 1.79 1.79 1.85 1.88 1.88 1.79 1.56 1.45 1.40 1.37 1.16 0.90 0.67 0.51 0.42 0.39 0.37 0.35 0.44 0.48 0.31 0.24 0.18 0.14 0.11 0.09 0.10 0.11 0.14 0.19 0.28 0.35 0.53
1.01 1.01 1.05 1.17 1.33 1.46 1.50 1.55 1.63 1.65 1.65 1.60 1.65 1.68 1.64 1.68 1.60 1.41 1.32 1.28 1.29 1.10 0.98 0.80 0.57 0.41 0.40 0.37 0.39 0.36 0.33 0.28 0.23 0.19 0.16 0.12 0.09 0.09 0.10 0.12 0.14 0.14 0.18
0.90 0.94 0.96 0.99 1.08 1.18 1.28 1.37 1.45 1.51 1.47 1.42 1.43 1.45 1.50 1.56 1.61 1.58 1.52 1.41 1.32 1.20 1.09 0.92 0.68 0.46 0.46 0.47 0.45 0.38 0.39 0.40 0.30 0.23 0.18 0.15 0.12 0.09 0.08 0.08 0.07 0.05 0.05
0.86 0.89 0.93 0.96 0.96 1.05 1.10 1.17 1.28 1.38 1.35 1.32 1.27 1.27 1.38 1.43 1.58 1.64 1.58 1.48 1.40 1.29 1.13 1.04 0.81 0.56 0.48 0.48 0.50 0.44 0.41 0.39 0.35 0.30 0.24 0.20 0.17 0.15 0.13 0.10 0.08 0.06 0.05
0.71 0.80 0.88 0.86 0.85 0.92 0.98 1.07 1.18 1.23 1.24 1.17 1.10 1.08 1.18 1.27 1.38 1.51 1.59 1.47 1.40 1.30 1.25 1.20 0.99 0.75 0.62 0.57 0.51 0.47 0.41 0.40 0.41 0.41 0.33 0.29 0.27 0.25 0.23 0.20 0.16 0.12 0.10
0.67 0.78 0.86 0.94 0.83 0.76 0.85 0.92 1.00 1.03 0.97 0.92 0.91 0.92 0.96 1.03 1.12 1.24 1.36 1.45 1.41 1.32 1.33 1.31 1.12 0.88 0.69 0.59 0.57 0.51 0.44 0.47 0.44 0.41 0.39 0.35 0.31 0.29 0.27 0.27 0.26 0.23 0.18
0.54 0.59 0.69 0.76 0.77 0.72 0.71 0.73 0.76 0.87 0.84 0.74 0.68 0.69 0.74 0.77 0.81 0.94 1.08 1.23 1.36 1.40 1.42 1.40 1.28 1.02 0.81 0.66 0.59 0.61 0.63 0.57 0.53 0.45 0.43 0.41 0.41 0.37 0.32 0.29 0.26 0.25 0.22
0.41 0.46 0.62 0.75 0.78 0.74 0.74 0.76 0.71 0.75 0.79 0.75 0.67 0.60 0.56 0.57 0.62 0.69 0.80 1.02 1.18 1.30 1.37 1.38 1.33 1.17 0.98 0.84 0.69 0.65 0.68 0.72 0.74 0.65 0.58 0.51 0.45 0.37 0.32 0.26 0.21 0.19 0.17
0.36 0.40 0.46 0.58 0.71 0.70 0.83 0.85 0.80 0.73 0.76 0.72 0.68 0.68 0.66 0.61 0.50 0.43 0.47 0.60 0.80 0.99 1.13 1.21 1.24 1.15 0.99 0.89 0.84 0.77 0.68 0.65 0.71 0.71 0.70 0.71 0.61 0.51 0.45 0.37 0.32 0.26 0.21
0.34 0.37 0.41 0.52 0.65 0.80 0.81 0.69 0.76 0.73 0.70 0.69 0.64 0.64 0.69 0.68 0.71 0.58 0.50 0.47 0.50 0.61 0.78 0.93 0.99 0.98 1.03 0.95 0.81 0.70 0.62 0.58 0.56 0.54 0.57 0.63 0.61 0.55 0.49 0.47 0.46 0.40 0.35
0.34 0.36 0.39 0.44 0.52 0.68 0.69 0.59 0.75 0.74 0.73 0.72 0.68 0.67 0.72 0.75 0.74 0.83 0.79 0.70 0.63 0.63 0.72 0.59 0.63 0.84 0.91 0.88 0.81 0.74 0.69 0.62 0.53 0.46 0.43 0.49 0.50 0.49 0.42 0.38 0.38 0.34 0.31
0.36 0.35 0.35 0.38 0.40 0.48 0.54 0.48 0.56 0.67 0.76 0.76 0.67 0.65 0.69 0.70 0.89 0.94 0.82 0.80 0.75 0.68 0.86 0.84 0.80 0.76 0.72 0.66 0.65 0.70 0.70 0.63 0.59 0.51 0.41 0.37 0.39 0.43 0.43 0.38 0.36 0.34 0.29
0.42 0.38 0.37 0.35 0.37 0.39 0.50 0.36 0.44 0.58 0.71 0.80 0.72 0.65 0.83 0.80 0.82 0.75 0.61 0.74 0.80 0.72 0.66 0.66 0.67 0.64 0.57 0.52 0.53 0.55 0.64 0.62 0.56 0.55 0.46 0.39 0.38 0.38 0.38 0.36 0.33 0.32 0.30

GEFSMA_prec_meanprecacc_090.txt.gz
Total_Precipitation_Accumulation
0.62 0.58 0.45 0.46 0.39 0.30 0.30 0.30 0.21 0.17 0.16 0.08 0.06 0.07 0.04 0.05 0.10 0.13 0.18 0.37 0.63 0.74 0.63 0.49 0.40 0.33 0.31 0.31 0.32 0.29 0.29 0.29 0.32 0.35 0.33 0.29 0.30 0.29 0.22 0.19 0.23 0.23 0.20
0.53 0.61 0.54 0.53 0.43 0.42 0.44 0.33 0.26 0.24 0.21 0.11 0.05 0.05 0.04 0.04 0.07 0.13 0.22 0.34 0.55 0.82 0.96 0.79 0.66 0.56 0.42 0.34 0.33 0.33 0.31 0.27 0.27 0.31 0.30 0.24 0.25 0.24 0.19 0.18 0.23 0.24 0.22
0.54 0.64 0.63 0.57 0.52 0.54 0.53 0.49 0.44 0.32 0.23 0.14 0.08 0.05 0.04 0.06 0.06 0.06 0.12 0.26 0.34 0.44 0.70 0.89 0.91 0.83 0.62 0.44 0.35 0.28 0.27 0.26 0.25 0.27 0.26 0.22 0.21 0.18 0.16 0.17 0.20 0.19 0.19
0.62 0.78 0.80 0.66 0.65 0.67 0.65 0.65 0.57 0.44 0.32 0.24 0.17 0.12 0.07 0.06 0.06 0.06 0.06 0.09 0.11 0.11 0.20 0.32 0.42 0.57 0.66 0.61 0.49 0.35 0.27 0.21 0.19 0.21 0.22 0.18 0.15 0.14 0.15 0.15 0.14 0.15 0.17
0.82 0.97 1.03 0.92 0.85 0.89 0.80 0.69 0.65 0.62 0.49 0.42 0.32 0.23 0.13 0.09 0.07 0.06 0.07 0.07 0.07 0.07 0.09 0.10 0.15 0.21 0.36 0.46 0.49 0.45 0.34 0.24 0.18 0.17 0.17 0.12 0.11 0.11 0.12 0.12 0.13 0.16 0.18
1.06 1.19 1.28 1.24 1.16 1.18 1.11 0.93 0.92 0.88 0.76 0.70 0.53 0.37 0.25 0.18 0.13 0.10 0.10 0.12 0.11 0.05 0.04 0.05 0.10 0.09 0.12 0.21 0.28 0.34 0.33 0.27 0.20 0.18 0.17 0.14 0.10 0.10 0.10 0.12 0.13 0.15 0.16
1.44 1.53 1.48 1.69 1.73 1.66 1.60 1.48 1.46 1.40 1.13 0.88 1.01 0.93 0.55 0.32 0.24 0.20 0.17 0.14 0.12 0.09 0.07 0.06 0.10 0.10 0.07 0.07 0.11 0.19 0.23 0.23 0.21 0.16 0.16 0.14 0.12 0.11 0.11 0.12 0.14 0.17 0.18
1.78 1.70 1.73 1.92 1.96 2.03 2.09 1.86 1.86 1.84 1.52 1.15 1.38 1.59 1.12 0.75 0.40 0.25 0.23 0.19 0.18 0.16 0.13 0.10 0.09 0.08 0.06 0.07 0.04 0.07 0.14 0.20 0.20 0.18 0.15 0.14 0.12 0.11 0.09 0.10 0.14 0.18 0.17
2.17 2.05 2.00 2.08 2.09 2.13 2.26 2.26 2.14 2.12 1.98 1.63 1.49 1.68 1.47 1.20 0.89 0.42 0.30 0.30 0.30 0.27 0.24 0.19 0.16 0.12 0.10 0.10 0.09 0.05 0.06 0.10 0.17 0.19 0.16 0.15 0.13 0.10 0.08 0.09 0.14 0.17 0.14
2.32 2.27 2.23 2.26 2.23 2.15 2.21 2.28 2.24 2.33 2.42 2.10 1.80 1.51 1.31 1.25 1.20 0.84 0.50 0.40 0.43 0.42 0.37 0.27 0.22 0.20 0.17 0.14 0.14 0.09 0.05 0.05 0.12 0.19 0.22 0.21 0.17 0.13 0.11 0.11 0.15 0.15 0.14
2.00 1.99 2.11 2.23 2.21 2.18 2.16 2.31 2.40 2.51 2.42 2.29 2.07 1.89 1.70 1.47 1.13 1.10 0.99 0.73 0.59 0.50 0.49 0.44 0.38 0.34 0.26 0.25 0.28 0.19 0.11 0.06 0.07 0.14 0.21 0.25 0.25 0.21 0.19 0.17 0.16 0.16 0.18
1.77 1.73 1.83 1.92 2.00 2.03 2.02 2.04 2.16 2.27 2.35 2.41 2.26 2.03 1.89 1.72 1.56 1.42 1.12 0.95 0.88 0.68 0.57 0.50 0.47 0.47 0.44 0.39 0.37 0.33 0.23 0.15 0.09 0.11 0.15 0.21 0.25 0.25 0.25 0.25 0.23 0.20 0.21
1.69 1.66 1.63 1.71 1.79 1.81 1.90 2.03 1.98 1.97 2.09 2.21 2.19 2.09 2.01 1.80 1.64 1.66 1.45 1.15 1.03 0.79 0.62 0.53 0.46 0.44 0.44 0.45 0.48 0.44 0.28 0.25 0.16 0.10 0.11 0.13 0.16 0.19 0.23 0.31 0.35 0.36 0.40
1.35 1.32 1.35 1.45 1.62 1.70 1.78 1.87 1.87 1.84 1.85 1.86 1.91 1.97 2.00 1.91 1.68 1.57 1.55 1.56 1.35 1.07 0.82 0.62 0.49 0.45 0.42 0.40 0.50 0.53 0.35 0.28 0.22 0.17 0.14 0.12 0.12 0.14 0.17 0.24 0.34 0.42 0.60
1.01 1.03 1.07 1.19 1.36 1.49 1.53 1.59 1.69 1.71 1.70 1.67 1.71 1.74 1.72 1.78 1.69 1.51 1.44 1.43 1.46 1.26 1.11 0.90 0.64 0.47 0.46 0.42 0.45 0.40 0.36 0.33 0.28 0.24 0.21 0.17 0.13 0.12 0.13 0.16 0.18 0.19 0.23
0.92 0.97 0.98 1.01 1.10 1.21 1.31 1.42 1.51 1.57 1.53 1.48 1.48 1.51 1.56 1.62 1.69 1.66 1.61 1.52 1.44 1.32 1.20 1.02 0.77 0.53 0.52 0.52 0.50 0.42 0.43 0.46 0.37 0.29 0.24 0.20 0.16 0.12 0.11 0.10 0.10 0.08 0.08
0.89 0.92 0.96 0.99 0.99 1.08 1.12 1.20 1.30 1.41 1.39 1.36 1.31 1.32 1.43 1.47 1.64 1.70 1.65 1.56 1.50 1.40 1.23 1.11 0.87 0.63 0.55 0.55 0.56 0.51 0.47 0.45 0.41 0.34 0.29 0.26 0.22 0.19 0.17 0.13 0.11 0.09 0.07
0.73 0.82 0.91 0.90 0.89 0.95 1.01 1.10 1.20 1.25 1.26 1.19 1.13 1.13 1.23 1.32 1.43 1.56 1.64 1.55 1.50 1.43 1.38 1.30 1.07 0.81 0.70 0.65 0.58 0.53 0.48 0.47 0.48 0.46 0.39 0.34 0.32 0.30 0.27 0.23 0.19 0.14 0.11
0.68 0.80 0.89 0.98 0.87 0.78 0.89 0.97 1.04 1.07 1.02 0.96 0.96 0.97 1.02 1.08 1.17 1.30 1.43 1.52 1.49 1.42 1.47 1.44 1.23 0.96 0.76 0.67 0.64 0.57 0.50 0.55 0.52 0.50 0.47 0.41 0.37 0.34 0.33 0.32 0.31 0.28 0.21
0.55 0.61 0.72 0.78 0.80 0.75 0.74 0.77 0.80 0.93 0.91 0.83 0.75 0.75 0.80 0.82 0.87 1.00 1.15 1.29 1.43 1.50 1.54 1.54 1.40 1.12 0.88 0.74 0.68 0.69 0.70 0.63 0.61 0.55 0.55 0.53 0.52 0.49 0.44 0.40 0.36 0.33 0.30
0.42 0.48 0.64 0.78 0.81 0.77 0.78 0.80 0.74 0.78 0.84 0.84 0.76 0.67 0.62 0.63 0.68 0.77 0.88 1.11 1.27 1.41 1.51 1.53 1.45 1.28 1.07 0.92 0.79 0.73 0.75 0.80 0.82 0.74 0.71 0.65 0.60 0.53 0.46 0.37 0.31 0.27 0.24
0.38 0.41 0.49 0.61 0.73 0.72 0.86 0.88 0.83 0.76 0.78 0.77 0.73 0.73 0.71 0.67 0.57 0.51 0.54 0.69 0.91 1.12 1.27 1.35 1.37 1.26 1.09 0.98 0.93 0.87 0.77 0.76 0.84 0.82 0.82 0.87 0.76 0.66 0.59 0.48 0.41 0.33 0.27
0.36 0.39 0.44 0.55 0.68 0.83 0.84 0.72 0.79 0.76 0.74 0.74 0.69 0.69 0.74 0.74 0.77 0.65 0.56 0.53 0.58 0.74 0.94 1.09 1.13 1.10 1.13 1.04 0.90 0.80 0.72 0.68 0.67 0.66 0.69 0.79 0.77 0.69 0.61 0.57 0.55 0.47 0.40
0.35 0.37 0.41 0.46 0.54 0.72 0.75 0.64 0.79 0.79 0.79 0.79 0.74 0.74 0.77 0.80 0.79 0.89 0.85 0.77 0.72 0.73 0.83 0.73 0.78 1.00 1.05 1.01 0.94 0.88 0.84 0.75 0.65 0.57 0.54 0.63 0.65 0.63 0.54 0.48 0.47 0.41 0.36
0.37 0.37 0.37 0.39 0.42 0.50 0.57 0.52 0.62 0.73 0.83 0.84 0.74 0.72 0.77 0.76 0.95 1.00 0.90 0.89 0.84 0.80 0.96 0.95 0.90 0.88 0.87 0.83 0.82 0.84 0.86 0.80 0.74 0.64 0.53 0.49 0.52 0.56 0.55 0.48 0.44 0.41 0.35
0.43 0.40 0.38 0.37 0.39 0.40 0.51 0.38 0.48 0.63 0.78 0.88 0.80 0.74 0.91 0.86 0.87 0.80 0.70 0.86 0.88 0.79 0.73 0.72 0.72 0.72 0.67 0.66 0.68 0.70 0.77 0.76 0.70 0.69 0.58 0.50 0.49 0.50 0.50 0.46 0.40 0.38 0.36

GEFSMA_prec_meanprecacc_096.txt.gz
Total_Precipitation_Accumulation
0.69 0.69 0.58 0.60 0.55 0.51 0.50 0.48 0.34 0.29 0.26 0.15 0.13 0.11 0.08 0.08 0.12 0.15 0.21 0.39 0.64 0.75 0.65 0.52 0.45 0.37 0.36 0.36 0.37 0.33 0.32 0.32 0.35 0.38 0.36 0.32 0.33 0.32 0.25 0.22 0.27 0.25 0.22
0.59 0.68 0.64 0.65 0.55 0.56 0.62 0.49 0.38 0.37 0.32 0.19 0.10 0.10 0.08 0.07 0.09 0.15 0.24 0.36 0.55 0.83 0.97 0.81 0.70 0.61 0.47 0.38 0.37 0.36 0.33 0.29 0.30 0.35 0.32 0.26 0.27 0.26 0.22 0.21 0.26 0.27 0.24
0.60 0.70 0.72 0.68 0.63 0.64 0.64 0.61 0.54 0.47 0.36 0.25 0.17 0.12 0.09 0.10 0.08 0.09 0.14 0.29 0.35 0.44 0.71 0.91 0.94 0.87 0.67 0.48 0.38 0.32 0.29 0.27 0.27 0.29 0.28 0.23 0.23 0.21 0.19 0.20 0.23 0.21 0.21
0.65 0.83 0.87 0.74 0.77 0.81 0.79 0.77 0.70 0.61 0.49 0.39 0.31 0.21 0.14 0.10 0.10 0.09 0.10 0.12 0.13 0.13 0.21 0.33 0.44 0.59 0.70 0.66 0.53 0.38 0.30 0.23 0.20 0.22 0.23 0.19 0.16 0.15 0.16 0.17 0.17 0.17 0.19
0.87 1.03 1.08 0.98 0.94 1.04 0.95 0.80 0.78 0.76 0.65 0.59 0.49 0.40 0.24 0.16 0.12 0.10 0.12 0.13 0.12 0.10 0.11 0.12 0.16 0.23 0.38 0.49 0.53 0.49 0.38 0.27 0.19 0.19 0.18 0.13 0.11 0.12 0.13 0.14 0.14 0.17 0.19
1.11 1.25 1.34 1.29 1.23 1.31 1.26 1.06 1.08 1.05 0.92 0.87 0.70 0.56 0.41 0.31 0.23 0.15 0.14 0.17 0.16 0.12 0.10 0.09 0.12 0.10 0.13 0.23 0.32 0.38 0.36 0.30 0.23 0.19 0.19 0.14 0.11 0.10 0.11 0.13 0.14 0.16 0.18
1.49 1.59 1.54 1.75 1.81 1.76 1.72 1.61 1.64 1.59 1.31 1.07 1.20 1.14 0.74 0.47 0.36 0.31 0.24 0.18 0.17 0.15 0.13 0.13 0.16 0.14 0.08 0.08 0.12 0.21 0.26 0.26 0.22 0.18 0.17 0.15 0.12 0.12 0.11 0.12 0.14 0.18 0.19
1.81 1.73 1.77 1.98 2.03 2.11 2.18 1.98 2.01 2.01 1.67 1.33 1.57 1.82 1.33 0.94 0.53 0.34 0.32 0.30 0.25 0.22 0.18 0.16 0.15 0.14 0.11 0.10 0.06 0.09 0.15 0.24 0.23 0.20 0.17 0.15 0.14 0.11 0.10 0.11 0.14 0.19 0.18
2.21 2.08 2.03 2.13 2.14 2.19 2.34 2.36 2.26 2.26 2.10 1.77 1.67 1.89 1.68 1.40 1.07 0.53 0.39 0.42 0.41 0.35 0.30 0.25 0.22 0.18 0.15 0.16 0.16 0.08 0.07 0.12 0.22 0.23 0.19 0.18 0.15 0.12 0.09 0.10 0.15 0.18 0.15
2.36 2.31 2.26 2.31 2.28 2.21 2.27 2.35 2.34 2.45 2.55 2.21 1.93 1.66 1.47 1.43 1.37 1.00 0.61 0.49 0.54 0.52 0.46 0.35 0.28 0.28 0.24 0.20 0.24 0.16 0.08 0.07 0.15 0.23 0.25 0.25 0.21 0.16 0.12 0.12 0.16 0.16 0.14
2.05 2.04 2.15 2.29 2.27 2.24 2.22 2.37 2.49 2.61 2.54 2.41 2.19 2.01 1.81 1.60 1.25 1.23 1.13 0.86 0.71 0.60 0.58 0.57 0.49 0.43 0.35 0.35 0.42 0.29 0.18 0.09 0.09 0.17 0.24 0.30 0.30 0.25 0.21 0.18 0.17 0.17 0.19
1.83 1.78 1.87 1.97 2.05 2.09 2.08 2.10 2.23 2.35 2.46 2.54 2.42 2.19 2.03 1.86 1.66 1.53 1.23 1.09 1.04 0.81 0.67 0.61 0.59 0.61 0.57 0.51 0.48 0.45 0.31 0.19 0.11 0.12 0.18 0.24 0.29 0.31 0.30 0.29 0.26 0.22 0.23
1.76 1.72 1.67 1.75 1.83 1.85 1.96 2.10 2.05 2.06 2.17 2.31 2.30 2.23 2.16 1.94 1.80 1.80 1.59 1.29 1.17 0.94 0.80 0.69 0.60 0.59 0.58 0.59 0.61 0.55 0.37 0.31 0.18 0.11 0.13 0.15 0.18 0.23 0.27 0.36 0.42 0.42 0.45
1.40 1.37 1.40 1.49 1.66 1.76 1.84 1.93 1.94 1.90 1.93 1.97 2.02 2.08 2.10 2.01 1.81 1.71 1.71 1.73 1.48 1.19 0.96 0.79 0.66 0.59 0.55 0.54 0.64 0.66 0.41 0.34 0.26 0.19 0.15 0.13 0.13 0.15 0.20 0.28 0.40 0.50 0.67
1.03 1.06 1.11 1.23 1.41 1.54 1.59 1.66 1.76 1.78 1.79 1.77 1.81 1.84 1.81 1.88 1.80 1.64 1.57 1.58 1.61 1.39 1.23 1.02 0.79 0.61 0.60 0.57 0.61 0.51 0.44 0.40 0.33 0.27 0.24 0.19 0.15 0.14 0.14 0.18 0.21 0.23 0.27
0.94 1.00 1.02 1.07 1.16 1.26 1.37 1.50 1.59 1.66 1.62 1.56 1.56 1.60 1.65 1.71 1.79 1.78 1.73 1.63 1.56 1.44 1.32 1.14 0.87 0.63 0.65 0.69 0.70 0.56 0.54 0.56 0.43 0.33 0.28 0.23 0.19 0.14 0.13 0.13 0.12 0.10 0.11
0.92 0.94 0.99 1.02 1.03 1.12 1.18 1.26 1.36 1.48 1.45 1.42 1.37 1.38 1.50 1.55 1.73 1.79 1.76 1.68 1.62 1.53 1.35 1.22 0.97 0.70 0.64 0.68 0.71 0.64 0.59 0.57 0.49 0.39 0.32 0.29 0.25 0.22 0.19 0.16 0.14 0.11 0.09
0.76 0.85 0.94 0.93 0.93 0.99 1.06 1.15 1.24 1.28 1.30 1.23 1.17 1.18 1.28 1.37 1.51 1.65 1.73 1.63 1.60 1.54 1.50 1.42 1.17 0.90 0.78 0.74 0.70 0.66 0.58 0.57 0.57 0.53 0.43 0.37 0.35 0.33 0.30 0.25 0.20 0.16 0.13
0.72 0.84 0.93 1.02 0.92 0.84 0.96 1.03 1.09 1.11 1.07 1.01 1.00 1.00 1.06 1.13 1.23 1.36 1.49 1.58 1.56 1.50 1.57 1.55 1.31 1.04 0.85 0.76 0.74 0.68 0.61 0.65 0.62 0.59 0.55 0.47 0.41 0.38 0.37 0.36 0.35 0.31 0.25
0.58 0.65 0.76 0.82 0.84 0.80 0.79 0.83 0.88 1.00 0.96 0.87 0.79 0.79 0.85 0.87 0.93 1.06 1.20 1.36 1.49 1.57 1.63 1.64 1.48 1.19 0.95 0.82 0.78 0.80 0.81 0.73 0.71 0.63 0.62 0.61 0.59 0.55 0.49 0.45 0.40 0.37 0.34
0.45 0.51 0.67 0.81 0.85 0.81 0.82 0.85 0.80 0.83 0.88 0.89 0.81 0.72 0.68 0.68 0.74 0.83 0.94 1.16 1.34 1.48 1.59 1.61 1.53 1.36 1.14 0.99 0.86 0.81 0.85 0.91 0.93 0.83 0.78 0.72 0.68 0.59 0.52 0.44 0.38 0.33 0.29
0.41 0.43 0.51 0.65 0.79 0.75 0.88 0.92 0.89 0.81 0.82 0.80 0.78 0.79 0.78 0.74 0.62 0.57 0.61 0.75 0.98 1.18 1.34 1.43 1.44 1.33 1.16 1.06 1.02 0.96 0.86 0.86 0.96 0.92 0.89 0.95 0.84 0.74 0.67 0.56 0.50 0.42 0.33
0.37 0.40 0.45 0.57 0.71 0.84 0.85 0.74 0.83 0.81 0.79 0.78 0.73 0.74 0.80 0.79 0.82 0.70 0.61 0.60 0.65 0.81 1.01 1.18 1.22 1.18 1.22 1.14 1.02 0.92 0.84 0.79 0.78 0.79 0.80 0.90 0.88 0.79 0.70 0.66 0.66 0.57 0.49
0.36 0.38 0.42 0.47 0.55 0.73 0.75 0.65 0.81 0.84 0.85 0.84 0.81 0.80 0.84 0.86 0.84 0.94 0.90 0.83 0.78 0.79 0.88 0.80 0.87 1.10 1.17 1.15 1.09 1.05 1.01 0.90 0.79 0.72 0.68 0.76 0.78 0.75 0.66 0.59 0.59 0.53 0.46
0.38 0.37 0.38 0.40 0.42 0.50 0.57 0.53 0.64 0.77 0.88 0.88 0.80 0.79 0.83 0.81 0.99 1.05 0.96 0.95 0.90 0.86 1.02 1.02 0.99 1.01 1.03 1.02 1.00 1.03 1.04 0.97 0.92 0.80 0.65 0.59 0.62 0.67 0.68 0.62 0.58 0.55 0.46
0.46 0.41 0.38 0.37 0.39 0.41 0.51 0.39 0.50 0.66 0.81 0.91 0.85 0.80 0.95 0.89 0.90 0.84 0.77 0.95 0.95 0.87 0.81 0.79 0.79 0.81 0.80 0.83 0.87 0.87 0.93 0.91 0.84 0.83 0.71 0.60 0.58 0.59 0.61 0.58 0.52 0.49 0.46

GEFSMA_prec_meanprecacc_102.txt.gz
Total_Precipitation_Accumulation
0.71 0.72 0.64 0.67 0.63 0.60 0.58 0.54 0.39 0.34 0.33 0.24 0.23 0.22 0.21 0.18 0.20 0.22 0.28 0.47 0.71 0.82 0.71 0.56 0.46 0.38 0.36 0.36 0.38 0.34 0.34 0.33 0.36 0.40 0.38 0.33 0.34 0.33 0.27 0.25 0.30 0.29 0.25
0.61 0.71 0.68 0.71 0.62 0.63 0.68 0.59 0.49 0.46 0.40 0.29 0.23 0.24 0.21 0.18 0.19 0.25 0.31 0.43 0.62 0.89 1.04 0.86 0.72 0.62 0.48 0.39 0.38 0.37 0.34 0.29 0.31 0.36 0.33 0.27 0.28 0.27 0.23 0.22 0.28 0.29 0.26
0.61 0.72 0.75 0.72 0.68 0.70 0.70 0.71 0.67 0.58 0.46 0.35 0.28 0.24 0.20 0.20 0.20 0.22 0.25 0.37 0.41 0.50 0.78 0.97 0.98 0.90 0.69 0.49 0.39 0.32 0.29 0.28 0.28 0.31 0.30 0.24 0.23 0.21 0.19 0.21 0.25 0.23 0.23
0.66 0.84 0.89 0.77 0.81 0.87 0.86 0.85 0.79 0.70 0.57 0.48 0.42 0.33 0.25 0.23 0.26 0.24 0.24 0.27 0.22 0.18 0.27 0.39 0.49 0.64 0.74 0.68 0.54 0.39 0.31 0.24 0.21 0.24 0.25 0.20 0.16 0.16 0.17 0.19 0.20 0.19 0.21
0.88 1.04 1.10 1.01 0.98 1.09 1.02 0.90 0.88 0.87 0.75 0.68 0.59 0.50 0.36 0.28 0.28 0.25 0.26 0.31 0.27 0.18 0.17 0.16 0.21 0.27 0.42 0.53 0.56 0.50 0.39 0.27 0.20 0.20 0.19 0.14 0.12 0.12 0.14 0.16 0.17 0.19 0.21
1.12 1.26 1.35 1.31 1.26 1.34 1.31 1.14 1.19 1.17 1.02 0.98 0.82 0.66 0.52 0.44 0.39 0.31 0.29 0.36 0.37 0.29 0.21 0.15 0.17 0.13 0.18 0.28 0.36 0.42 0.39 0.31 0.23 0.20 0.19 0.15 0.11 0.10 0.11 0.14 0.16 0.18 0.20
1.49 1.60 1.56 1.77 1.82 1.77 1.76 1.67 1.72 1.71 1.42 1.20 1.35 1.24 0.84 0.58 0.49 0.45 0.39 0.37 0.35 0.33 0.29 0.24 0.23 0.20 0.13 0.14 0.16 0.26 0.30 0.28 0.24 0.19 0.18 0.15 0.13 0.12 0.11 0.13 0.15 0.19 0.21
1.82 1.74 1.79 2.00 2.04 2.13 2.21 2.03 2.08 2.10 1.77 1.44 1.70 1.95 1.44 1.04 0.61 0.43 0.43 0.43 0.41 0.39 0.34 0.30 0.28 0.25 0.20 0.18 0.10 0.13 0.20 0.28 0.26 0.22 0.19 0.16 0.14 0.12 0.10 0.12 0.15 0.20 0.20
2.22 2.10 2.05 2.15 2.16 2.21 2.35 2.38 2.31 2.31 2.16 1.84 1.76 2.02 1.78 1.48 1.15 0.62 0.47 0.52 0.55 0.49 0.47 0.44 0.38 0.35 0.29 0.27 0.23 0.14 0.13 0.18 0.28 0.27 0.23 0.20 0.17 0.14 0.11 0.11 0.16 0.20 0.17
2.39 2.34 2.28 2.32 2.30 2.23 2.28 2.37 2.36 2.49 2.59 2.27 2.01 1.75 1.55 1.50 1.45 1.08 0.69 0.58 0.65 0.64 0.59 0.50 0.44 0.43 0.40 0.34 0.33 0.24 0.14 0.12 0.22 0.30 0.30 0.28 0.24 0.17 0.14 0.13 0.17 0.17 0.16
2.09 2.08 2.18 2.30 2.29 2.26 2.24 2.39 2.51 2.64 2.58 2.46 2.26 2.08 1.89 1.66 1.30 1.30 1.20 0.94 0.81 0.69 0.69 0.71 0.65 0.59 0.52 0.52 0.57 0.40 0.28 0.15 0.16 0.25 0.32 0.36 0.34 0.28 0.23 0.20 0.18 0.18 0.21
1.86 1.81 1.90 1.99 2.07 2.11 2.10 2.12 2.25 2.38 2.50 2.59 2.48 2.25 2.09 1.92 1.71 1.58 1.29 1.15 1.12 0.90 0.77 0.74 0.78 0.77 0.76 0.72 0.67 0.62 0.45 0.30 0.19 0.19 0.25 0.32 0.36 0.36 0.34 0.32 0.28 0.24 0.25
1.79 1.73 1.69 1.76 1.85 1.87 1.98 2.13 2.08 2.08 2.21 2.37 2.36 2.27 2.20 1.98 1.84 1.85 1.65 1.35 1.23 1.02 0.89 0.80 0.76 0.76 0.74 0.76 0.79 0.76 0.54 0.44 0.29 0.19 0.20 0.22 0.26 0.31 0.34 0.42 0.47 0.47 0.49
1.43 1.38 1.41 1.50 1.68 1.78 1.86 1.96 1.96 1.93 1.97 2.03 2.07 2.12 2.12 2.04 1.84 1.74 1.74 1.79 1.54 1.24 1.01 0.85 0.77 0.74 0.70 0.69 0.79 0.84 0.55 0.46 0.36 0.27 0.23 0.19 0.20 0.23 0.28 0.35 0.46 0.56 0.73
1.05 1.08 1.12 1.25 1.42 1.56 1.62 1.68 1.78 1.81 1.83 1.81 1.87 1.91 1.86 1.91 1.82 1.66 1.60 1.62 1.67 1.44 1.27 1.06 0.86 0.73 0.75 0.72 0.75 0.64 0.55 0.50 0.41 0.34 0.30 0.24 0.19 0.18 0.20 0.25 0.28 0.28 0.31
0.95 1.02 1.03 1.09 1.18 1.28 1.39 1.53 1.62 1.69 1.66 1.61 1.60 1.64 1.68 1.73 1.81 1.80 1.75 1.66 1.60 1.49 1.37 1.19 0.92 0.70 0.78 0.81 0.84 0.69 0.67 0.70 0.54 0.40 0.33 0.28 0.24 0.19 0.16 0.17 0.17 0.15 0.15
0.93 0.96 1.01 1.05 1.06 1.15 1.20 1.29 1.39 1.50 1.47 1.45 1.39 1.40 1.52 1.57 1.75 1.82 1.79 1.71 1.65 1.57 1.39 1.27 1.02 0.76 0.73 0.79 0.83 0.76 0.74 0.70 0.59 0.47 0.37 0.33 0.29 0.26 0.23 0.20 0.17 0.14 0.12
0.78 0.88 0.98 0.97 0.97 1.03 1.11 1.19 1.27 1.30 1.31 1.25 1.19 1.20 1.30 1.39 1.53 1.67 1.75 1.65 1.63 1.58 1.55 1.47 1.21 0.95 0.84 0.81 0.79 0.77 0.69 0.67 0.67 0.62 0.51 0.43 0.39 0.36 0.33 0.29 0.25 0.20 0.16
0.73 0.87 0.97 1.05 0.98 0.90 1.00 1.06 1.11 1.13 1.08 1.02 1.01 1.02 1.08 1.14 1.25 1.38 1.51 1.60 1.58 1.53 1.61 1.58 1.34 1.07 0.90 0.81 0.81 0.78 0.71 0.75 0.71 0.69 0.64 0.55 0.48 0.43 0.40 0.39 0.38 0.35 0.28
0.59 0.67 0.78 0.85 0.89 0.85 0.84 0.85 0.89 1.01 0.97 0.88 0.81 0.81 0.86 0.88 0.94 1.08 1.23 1.38 1.51 1.60 1.67 1.68 1.51 1.21 0.99 0.89 0.86 0.88 0.90 0.82 0.80 0.74 0.73 0.70 0.68 0.62 0.54 0.49 0.44 0.40 0.37
0.46 0.52 0.68 0.83 0.88 0.86 0.88 0.88 0.82 0.85 0.89 0.90 0.82 0.74 0.70 0.69 0.75 0.85 0.96 1.18 1.36 1.50 1.61 1.64 1.57 1.40 1.18 1.05 0.93 0.86 0.91 0.99 1.01 0.92 0.88 0.81 0.76 0.65 0.57 0.49 0.43 0.38 0.34
0.41 0.44 0.51 0.66 0.80 0.78 0.91 0.95 0.90 0.82 0.83 0.82 0.80 0.80 0.81 0.76 0.65 0.59 0.63 0.78 1.00 1.21 1.37 1.45 1.47 1.36 1.20 1.10 1.08 1.03 0.93 0.93 1.03 0.97 0.96 1.03 0.94 0.82 0.72 0.61 0.55 0.47 0.40
0.38 0.40 0.46 0.58 0.71 0.85 0.86 0.76 0.85 0.84 0.80 0.80 0.76 0.76 0.82 0.82 0.85 0.73 0.65 0.63 0.68 0.85 1.05 1.21 1.24 1.19 1.24 1.17 1.07 0.98 0.90 0.84 0.83 0.85 0.87 0.97 0.97 0.88 0.78 0.74 0.74 0.64 0.55
0.37 0.38 0.42 0.47 0.55 0.73 0.76 0.66 0.83 0.87 0.88 0.86 0.83 0.82 0.86 0.89 0.88 0.98 0.94 0.85 0.80 0.80 0.90 0.82 0.89 1.12 1.20 1.19 1.15 1.12 1.09 0.96 0.85 0.80 0.78 0.85 0.86 0.83 0.74 0.69 0.71 0.63 0.55
0.39 0.38 0.38 0.40 0.43 0.51 0.58 0.55 0.68 0.81 0.92 0.91 0.81 0.80 0.84 0.83 1.02 1.09 0.99 0.98 0.92 0.87 1.04 1.03 1.01 1.03 1.07 1.06 1.06 1.10 1.11 1.04 0.99 0.89 0.75 0.68 0.71 0.76 0.78 0.72 0.70 0.68 0.59
0.46 0.41 0.39 0.37 0.39 0.41 0.53 0.42 0.53 0.70 0.85 0.94 0.88 0.83 0.98 0.93 0.94 0.89 0.81 0.99 0.98 0.89 0.83 0.80 0.80 0.83 0.83 0.87 0.92 0.93 0.99 0.96 0.89 0.90 0.78 0.68 0.67 0.69 0.73 0.69 0.62 0.59 0.57

GEFSMA_prec_meanprecacc_108.txt.gz
Total_Precipitation_Accumulation
0.72 0.73 0.66 0.70 0.66 0.64 0.63 0.61 0.46 0.42 0.40 0.31 0.28 0.27 0.25 0.21 0.23 0.24 0.29 0.49 0.77 0.94 0.84 0.68 0.55 0.43 0.39 0.39 0.39 0.38 0.39 0.37 0.40 0.44 0.42 0.36 0.36 0.36 0.29 0.28 0.33 0.32 0.28
0.61 0.72 0.70 0.74 0.65 0.67 0.73 0.64 0.55 0.52 0.46 0.35 0.28 0.30 0.27 0.22 0.22 0.27 0.33 0.45 0.67 0.99 1.15 1.00 0.84 0.70 0.51 0.41 0.40 0.41 0.38 0.34 0.35 0.40 0.37 0.31 0.31 0.28 0.25 0.24 0.31 0.32 0.29
0.61 0.72 0.75 0.73 0.70 0.72 0.74 0.76 0.74 0.66 0.53 0.40 0.32 0.29 0.27 0.26 0.25 0.25 0.28 0.40 0.44 0.57 0.88 1.10 1.10 1.00 0.76 0.52 0.41 0.36 0.33 0.32 0.31 0.34 0.34 0.27 0.26 0.23 0.20 0.23 0.28 0.25 0.24
0.66 0.85 0.89 0.77 0.82 0.90 0.90 0.90 0.85 0.76 0.64 0.54 0.47 0.37 0.29 0.28 0.31 0.29 0.29 0.32 0.28 0.24 0.36 0.51 0.62 0.75 0.86 0.76 0.59 0.44 0.36 0.27 0.24 0.26 0.27 0.23 0.19 0.18 0.19 0.23 0.23 0.22 0.23
0.88 1.04 1.10 1.01 0.99 1.11 1.05 0.93 0.92 0.91 0.80 0.74 0.66 0.57 0.40 0.32 0.33 0.31 0.33 0.38 0.36 0.26 0.23 0.25 0.32 0.40 0.56 0.65 0.66 0.58 0.45 0.32 0.22 0.22 0.21 0.16 0.13 0.14 0.16 0.18 0.20 0.23 0.24
1.12 1.26 1.35 1.31 1.26 1.35 1.32 1.17 1.22 1.21 1.07 1.07 0.92 0.75 0.60 0.51 0.45 0.39 0.37 0.42 0.45 0.37 0.29 0.22 0.25 0.23 0.30 0.41 0.49 0.53 0.47 0.38 0.28 0.23 0.21 0.16 0.12 0.11 0.13 0.17 0.18 0.21 0.23
1.50 1.60 1.56 1.77 1.83 1.79 1.78 1.70 1.77 1.77 1.48 1.28 1.47 1.38 0.93 0.65 0.56 0.53 0.49 0.45 0.44 0.43 0.37 0.31 0.29 0.26 0.20 0.23 0.26 0.36 0.40 0.38 0.31 0.24 0.22 0.18 0.15 0.13 0.12 0.14 0.18 0.22 0.24
1.83 1.75 1.81 2.01 2.05 2.14 2.23 2.06 2.13 2.17 1.84 1.53 1.81 2.10 1.57 1.13 0.67 0.48 0.50 0.50 0.50 0.49 0.43 0.37 0.34 0.31 0.27 0.24 0.15 0.22 0.30 0.38 0.37 0.30 0.25 0.21 0.18 0.14 0.12 0.13 0.18 0.23 0.24
2.23 2.11 2.06 2.17 2.17 2.22 2.38 2.41 2.34 2.35 2.21 1.91 1.84 2.14 1.92 1.59 1.21 0.66 0.51 0.56 0.60 0.56 0.56 0.54 0.45 0.41 0.37 0.35 0.30 0.22 0.22 0.27 0.37 0.38 0.33 0.27 0.22 0.18 0.14 0.13 0.18 0.22 0.21
2.40 2.35 2.29 2.34 2.32 2.25 2.31 2.39 2.39 2.53 2.63 2.33 2.08 1.84 1.65 1.59 1.54 1.13 0.73 0.62 0.70 0.69 0.66 0.57 0.51 0.51 0.48 0.42 0.42 0.33 0.26 0.23 0.32 0.41 0.42 0.40 0.33 0.23 0.19 0.17 0.20 0.19 0.18
2.10 2.08 2.19 2.32 2.31 2.27 2.25 2.41 2.53 2.67 2.61 2.50 2.32 2.16 1.98 1.75 1.37 1.36 1.26 0.99 0.86 0.73 0.74 0.76 0.70 0.67 0.62 0.61 0.66 0.48 0.36 0.25 0.25 0.37 0.43 0.48 0.46 0.37 0.29 0.24 0.21 0.20 0.22
1.88 1.82 1.91 2.00 2.08 2.12 2.11 2.13 2.26 2.39 2.53 2.64 2.52 2.30 2.16 2.00 1.80 1.64 1.34 1.21 1.18 0.95 0.82 0.79 0.83 0.81 0.82 0.81 0.77 0.73 0.54 0.38 0.27 0.28 0.35 0.43 0.48 0.48 0.44 0.39 0.32 0.28 0.29
1.81 1.74 1.70 1.78 1.86 1.89 1.98 2.14 2.09 2.10 2.25 2.41 2.41 2.32 2.25 2.02 1.89 1.91 1.70 1.39 1.28 1.08 0.94 0.84 0.80 0.82 0.80 0.82 0.87 0.87 0.64 0.53 0.36 0.27 0.29 0.30 0.35 0.41 0.46 0.54 0.57 0.55 0.54
1.43 1.39 1.42 1.52 1.69 1.78 1.87 1.96 1.97 1.94 1.99 2.05 2.10 2.16 2.17 2.08 1.86 1.77 1.78 1.82 1.57 1.28 1.07 0.90 0.82 0.79 0.77 0.76 0.87 0.94 0.65 0.57 0.47 0.37 0.31 0.27 0.27 0.31 0.39 0.46 0.58 0.67 0.82
1.06 1.09 1.13 1.25 1.44 1.58 1.63 1.70 1.80 1.83 1.85 1.84 1.90 1.94 1.90 1.95 1.84 1.68 1.62 1.65 1.70 1.48 1.31 1.12 0.90 0.77 0.80 0.77 0.82 0.70 0.61 0.59 0.52 0.44 0.39 0.31 0.26 0.26 0.28 0.34 0.40 0.41 0.43
0.96 1.03 1.05 1.10 1.19 1.29 1.41 1.55 1.63 1.71 1.70 1.64 1.63 1.67 1.71 1.76 1.83 1.81 1.76 1.68 1.62 1.52 1.41 1.25 0.97 0.74 0.82 0.87 0.91 0.75 0.71 0.77 0.62 0.49 0.41 0.35 0.31 0.26 0.25 0.26 0.26 0.24 0.25
0.94 0.96 1.01 1.06 1.08 1.16 1.22 1.31 1.41 1.52 1.50 1.48 1.42 1.43 1.54 1.59 1.77 1.83 1.80 1.73 1.68 1.59 1.42 1.32 1.06 0.82 0.79 0.86 0.90 0.83 0.81 0.77 0.65 0.55 0.46 0.41 0.36 0.33 0.31 0.29 0.27 0.23 0.20
0.78 0.88 0.99 0.98 0.99 1.05 1.13 1.22 1.30 1.32 1.34 1.28 1.21 1.22 1.32 1.40 1.54 1.68 1.76 1.66 1.65 1.60 1.57 1.50 1.25 1.00 0.90 0.88 0.86 0.83 0.76 0.74 0.73 0.68 0.57 0.49 0.45 0.42 0.39 0.35 0.32 0.28 0.26
0.74 0.87 0.98 1.07 0.99 0.92 1.02 1.09 1.14 1.15 1.11 1.04 1.03 1.04 1.09 1.16 1.26 1.39 1.52 1.61 1.60 1.55 1.63 1.61 1.38 1.12 0.96 0.89 0.88 0.84 0.77 0.81 0.77 0.74 0.69 0.61 0.54 0.48 0.44 0.43 0.42 0.39 0.34
0.60 0.67 0.80 0.88 0.92 0.89 0.87 0.88 0.92 1.04 1.00 0.90 0.82 0.82 0.87 0.89 0.95 1.09 1.24 1.38 1.52 1.61 1.69 1.70 1.55 1.26 1.05 0.96 0.92 0.94 0.94 0.86 0.85 0.79 0.78 0.75 0.74 0.70 0.61 0.54 0.48 0.44 0.41
0.47 0.53 0.68 0.84 0.90 0.88 0.92 0.92 0.84 0.86 0.91 0.92 0.84 0.75 0.70 0.70 0.77 0.86 0.97 1.19 1.36 1.51 1.63 1.67 1.60 1.43 1.22 1.12 0.99 0.90 0.96 1.03 1.05 0.96 0.93 0.86 0.80 0.71 0.63 0.56 0.50 0.43 0.38
0.41 0.44 0.52 0.67 0.81 0.80 0.94 0.99 0.93 0.84 0.84 0.83 0.81 0.82 0.82 0.77 0.66 0.60 0.64 0.79 1.01 1.22 1.38 1.46 1.49 1.38 1.23 1.15 1.15 1.08 0.98 0.98 1.08 1.01 1.00 1.08 0.98 0.85 0.76 0.65 0.60 0.52 0.45
0.38 0.40 0.46 0.58 0.72 0.87 0.88 0.78 0.88 0.87 0.83 0.82 0.77 0.78 0.83 0.83 0.85 0.74 0.66 0.64 0.69 0.85 1.06 1.22 1.25 1.21 1.26 1.21 1.14 1.05 0.96 0.90 0.89 0.90 0.93 1.03 1.01 0.92 0.80 0.77 0.78 0.69 0.62
0.37 0.38 0.43 0.48 0.56 0.74 0.78 0.68 0.87 0.90 0.89 0.88 0.84 0.84 0.88 0.90 0.88 0.98 0.94 0.85 0.80 0.81 0.91 0.83 0.90 1.14 1.22 1.21 1.20 1.20 1.16 1.03 0.91 0.86 0.83 0.89 0.90 0.86 0.77 0.72 0.76 0.69 0.62
0.39 0.38 0.38 0.40 0.43 0.52 0.60 0.57 0.70 0.83 0.93 0.92 0.81 0.80 0.86 0.85 1.04 1.10 1.00 0.98 0.92 0.88 1.05 1.05 1.03 1.05 1.09 1.09 1.10 1.16 1.18 1.10 1.04 0.93 0.78 0.71 0.73 0.79 0.81 0.76 0.75 0.76 0.69
0.46 0.41 0.39 0.37 0.39 0.42 0.54 0.43 0.55 0.71 0.86 0.95 0.88 0.83 0.99 0.95 0.96 0.90 0.83 1.01 1.00 0.90 0.84 0.81 0.82 0.84 0.85 0.89 0.95 0.97 1.04 1.01 0.93 0.93 0.81 0.71 0.70 0.72 0.77 0.73 0.67 0.66 0.67

GEFSMA_prec_meanprecacc_114.txt.gz
Total_Precipitation_Accumulation
0.72 0.74 0.67 0.71 0.67 0.66 0.67 0.66 0.52 0.48 0.46 0.36 0.34 0.34 0.35 0.29 0.30 0.28 0.31 0.50 0.79 1.00 0.94 0.81 0.68 0.52 0.47 0.47 0.44 0.44 0.47 0.44 0.46 0.49 0.47 0.41 0.42 0.41 0.33 0.31 0.37 0.36 0.32
0.62 0.72 0.71 0.75 0.66 0.68 0.75 0.68 0.60 0.58 0.53 0.42 0.34 0.36 0.35 0.29 0.27 0.30 0.35 0.47 0.68 1.02 1.22 1.12 0.99 0.81 0.60 0.49 0.46 0.48 0.45 0.40 0.42 0.46 0.41 0.35 0.36 0.33 0.27 0.27 0.34 0.36 0.34
0.62 0.73 0.76 0.74 0.71 0.74 0.76 0.79 0.79 0.72 0.60 0.48 0.39 0.35 0.32 0.33 0.30 0.28 0.31 0.43 0.46 0.59 0.93 1.19 1.23 1.13 0.88 0.62 0.50 0.43 0.42 0.39 0.38 0.40 0.37 0.30 0.29 0.26 0.24 0.25 0.31 0.28 0.29
0.67 0.86 0.90 0.78 0.83 0.92 0.93 0.94 0.90 0.81 0.70 0.61 0.56 0.46 0.35 0.34 0.37 0.33 0.32 0.36 0.33 0.29 0.41 0.57 0.70 0.85 0.99 0.89 0.71 0.52 0.44 0.36 0.31 0.33 0.31 0.26 0.22 0.20 0.22 0.25 0.25 0.25 0.29
0.88 1.05 1.11 1.02 0.99 1.13 1.08 0.96 0.95 0.95 0.83 0.79 0.74 0.67 0.48 0.38 0.38 0.36 0.37 0.42 0.41 0.32 0.33 0.32 0.38 0.47 0.67 0.80 0.80 0.69 0.55 0.41 0.31 0.30 0.26 0.20 0.17 0.17 0.19 0.20 0.22 0.25 0.27
1.12 1.26 1.36 1.32 1.27 1.37 1.35 1.20 1.25 1.24 1.11 1.12 1.00 0.84 0.68 0.56 0.50 0.46 0.43 0.47 0.52 0.43 0.37 0.31 0.34 0.31 0.39 0.52 0.64 0.66 0.59 0.49 0.38 0.31 0.26 0.20 0.15 0.14 0.16 0.19 0.21 0.23 0.26
1.51 1.62 1.58 1.78 1.84 1.81 1.80 1.72 1.80 1.80 1.52 1.34 1.55 1.46 1.01 0.72 0.62 0.59 0.55 0.52 0.50 0.49 0.45 0.40 0.38 0.33 0.28 0.31 0.36 0.48 0.53 0.52 0.44 0.35 0.30 0.23 0.18 0.16 0.15 0.18 0.21 0.25 0.27
1.84 1.76 1.83 2.03 2.07 2.16 2.25 2.08 2.16 2.20 1.88 1.58 1.89 2.20 1.68 1.24 0.74 0.53 0.54 0.56 0.56 0.55 0.50 0.44 0.43 0.40 0.34 0.33 0.22 0.29 0.40 0.49 0.49 0.43 0.38 0.32 0.26 0.19 0.15 0.16 0.20 0.26 0.27
2.23 2.12 2.08 2.19 2.19 2.25 2.40 2.43 2.37 2.39 2.27 1.97 1.92 2.26 2.04 1.71 1.31 0.72 0.56 0.61 0.66 0.63 0.63 0.61 0.53 0.49 0.44 0.43 0.39 0.29 0.28 0.34 0.46 0.47 0.45 0.39 0.33 0.27 0.20 0.18 0.21 0.25 0.23
2.41 2.35 2.29 2.35 2.35 2.28 2.35 2.43 2.42 2.57 2.69 2.39 2.14 1.91 1.76 1.71 1.69 1.25 0.80 0.67 0.75 0.75 0.73 0.64 0.59 0.60 0.56 0.50 0.51 0.41 0.31 0.29 0.39 0.49 0.52 0.51 0.44 0.33 0.27 0.23 0.24 0.23 0.21
2.11 2.09 2.20 2.34 2.34 2.30 2.28 2.43 2.55 2.71 2.65 2.55 2.37 2.23 2.05 1.83 1.46 1.48 1.36 1.05 0.91 0.79 0.80 0.82 0.77 0.76 0.72 0.71 0.78 0.56 0.42 0.30 0.31 0.44 0.53 0.58 0.57 0.47 0.38 0.32 0.27 0.25 0.27
1.90 1.84 1.92 2.02 2.10 2.14 2.13 2.15 2.28 2.42 2.57 2.68 2.58 2.37 2.24 2.08 1.87 1.73 1.44 1.27 1.23 1.00 0.87 0.84 0.88 0.85 0.88 0.88 0.86 0.81 0.60 0.43 0.31 0.34 0.42 0.51 0.57 0.59 0.55 0.50 0.41 0.34 0.35
1.82 1.76 1.72 1.80 1.87 1.90 2.00 2.16 2.12 2.13 2.29 2.45 2.45 2.38 2.31 2.09 1.96 1.99 1.79 1.46 1.33 1.13 1.00 0.90 0.84 0.85 0.83 0.87 0.93 0.93 0.69 0.58 0.41 0.31 0.33 0.34 0.39 0.47 0.54 0.63 0.68 0.66 0.64
1.44 1.41 1.44 1.54 1.70 1.79 1.88 1.98 2.00 1.97 2.02 2.08 2.13 2.20 2.22 2.12 1.91 1.84 1.86 1.91 1.64 1.33 1.12 0.95 0.86 0.82 0.79 0.80 0.93 0.99 0.69 0.60 0.49 0.39 0.35 0.31 0.31 0.35 0.44 0.53 0.67 0.78 0.94
1.07 1.10 1.14 1.26 1.45 1.59 1.65 1.71 1.82 1.85 1.88 1.87 1.93 1.97 1.94 1.99 1.88 1.72 1.67 1.71 1.79 1.57 1.38 1.17 0.94 0.80 0.82 0.80 0.85 0.72 0.64 0.64 0.55 0.46 0.41 0.35 0.30 0.30 0.32 0.39 0.45 0.48 0.53
0.96 1.05 1.06 1.11 1.20 1.30 1.42 1.56 1.66 1.73 1.73 1.67 1.66 1.70 1.74 1.80 1.86 1.85 1.80 1.72 1.67 1.60 1.50 1.31 1.03 0.78 0.85 0.88 0.93 0.78 0.75 0.82 0.67 0.53 0.43 0.38 0.34 0.29 0.27 0.28 0.28 0.26 0.28
0.94 0.99 1.04 1.07 1.09 1.18 1.23 1.33 1.44 1.55 1.53 1.51 1.44 1.45 1.56 1.62 1.80 1.86 1.83 1.76 1.71 1.62 1.48 1.39 1.13 0.87 0.83 0.89 0.92 0.85 0.85 0.81 0.69 0.60 0.51 0.46 0.40 0.37 0.33 0.31 0.30 0.26 0.22
0.79 0.90 1.02 1.00 1.00 1.06 1.14 1.23 1.32 1.35 1.38 1.31 1.24 1.25 1.34 1.42 1.56 1.71 1.79 1.69 1.68 1.63 1.60 1.54 1.30 1.06 0.95 0.93 0.91 0.87 0.79 0.77 0.77 0.72 0.62 0.54 0.50 0.47 0.43 0.38 0.35 0.31 0.29
0.74 0.88 1.00 1.10 1.02 0.94 1.04 1.11 1.16 1.17 1.14 1.07 1.06 1.07 1.12 1.18 1.28 1.41 1.54 1.63 1.63 1.58 1.67 1.64 1.42 1.16 1.00 0.93 0.93 0.90 0.85 0.87 0.81 0.78 0.72 0.64 0.58 0.51 0.47 0.46 0.45 0.41 0.36
0.60 0.67 0.81 0.90 0.96 0.92 0.88 0.89 0.94 1.07 1.02 0.92 0.84 0.84 0.89 0.90 0.97 1.11 1.26 1.40 1.54 1.65 1.73 1.73 1.58 1.29 1.08 1.00 0.97 1.00 1.02 0.93 0.92 0.84 0.83 0.79 0.77 0.72 0.64 0.57 0.51 0.46 0.43
0.47 0.53 0.69 0.86 0.92 0.92 0.95 0.94 0.86 0.89 0.94 0.94 0.85 0.76 0.71 0.71 0.78 0.88 0.98 1.21 1.39 1.54 1.67 1.70 1.63 1.45 1.25 1.16 1.05 0.97 1.03 1.10 1.12 1.01 0.98 0.90 0.84 0.73 0.65 0.59 0.52 0.46 0.40
0.42 0.44 0.52 0.68 0.83 0.82 0.97 1.01 0.94 0.86 0.86 0.85 0.83 0.83 0.83 0.77 0.67 0.61 0.65 0.81 1.03 1.24 1.40 1.50 1.51 1.40 1.24 1.17 1.20 1.15 1.05 1.05 1.14 1.06 1.05 1.13 1.04 0.90 0.79 0.68 0.62 0.56 0.48
0.38 0.40 0.46 0.59 0.73 0.88 0.90 0.80 0.90 0.89 0.84 0.84 0.79 0.80 0.84 0.84 0.86 0.75 0.67 0.65 0.70 0.87 1.08 1.25 1.28 1.23 1.29 1.23 1.17 1.11 1.03 0.97 0.95 0.95 0.96 1.07 1.06 0.97 0.85 0.82 0.83 0.73 0.66
0.37 0.39 0.43 0.48 0.56 0.75 0.79 0.69 0.88 0.91 0.90 0.88 0.85 0.86 0.89 0.92 0.90 1.00 0.96 0.87 0.82 0.83 0.93 0.84 0.93 1.17 1.25 1.25 1.24 1.25 1.22 1.10 0.99 0.92 0.87 0.93 0.93 0.89 0.80 0.75 0.79 0.72 0.65
0.39 0.38 0.38 0.40 0.43 0.52 0.61 0.57 0.70 0.84 0.93 0.92 0.82 0.81 0.86 0.87 1.05 1.11 1.02 1.00 0.94 0.91 1.06 1.06 1.04 1.07 1.11 1.11 1.12 1.20 1.23 1.15 1.10 0.99 0.85 0.77 0.78 0.83 0.85 0.78 0.77 0.78 0.71
0.46 0.41 0.39 0.37 0.40 0.42 0.55 0.44 0.55 0.71 0.86 0.96 0.89 0.83 0.99 0.96 0.97 0.91 0.85 1.03 1.02 0.92 0.85 0.82 0.83 0.86 0.86 0.90 0.97 1.00 1.10 1.07 0.99 0.99 0.85 0.75 0.74 0.78 0.81 0.76 0.69 0.67 0.68

GEFSMA_prec_meanprecacc_120.txt.gz
Total_Precipitation_Accumulation
0.73 0.74 0.69 0.73 0.69 0.67 0.69 0.69 0.56 0.53 0.51 0.41 0.38 0.39 0.41 0.35 0.38 0.36 0.40 0.55 0.82 1.04 0.98 0.85 0.74 0.59 0.52 0.52 0.49 0.49 0.51 0.49 0.52 0.54 0.52 0.46 0.47 0.44 0.37 0.38 0.45 0.43 0.38
0.62 0.74 0.72 0.77 0.68 0.70 0.77 0.70 0.63 0.62 0.60 0.50 0.40 0.41 0.40 0.36 0.37 0.42 0.46 0.57 0.73 1.06 1.28 1.17 1.05 0.89 0.67 0.54 0.52 0.54 0.49 0.44 0.46 0.51 0.46 0.38 0.39 0.36 0.30 0.30 0.40 0.43 0.40
0.62 0.74 0.78 0.77 0.73 0.76 0.79 0.82 0.81 0.75 0.65 0.55 0.47 0.43 0.40 0.40 0.40 0.40 0.41 0.56 0.58 0.65 0.98 1.24 1.29 1.20 0.95 0.69 0.58 0.51 0.47 0.43 0.42 0.45 0.42 0.33 0.32 0.29 0.27 0.28 0.35 0.34 0.35
0.67 0.86 0.92 0.80 0.85 0.94 0.97 0.98 0.94 0.85 0.75 0.68 0.67 0.56 0.45 0.43 0.44 0.43 0.42 0.45 0.43 0.39 0.48 0.62 0.75 0.91 1.06 0.97 0.79 0.60 0.53 0.42 0.35 0.38 0.35 0.29 0.25 0.23 0.25 0.30 0.29 0.30 0.34
0.88 1.05 1.12 1.03 1.01 1.14 1.11 1.00 1.00 0.99 0.89 0.86 0.82 0.76 0.58 0.48 0.46 0.43 0.45 0.51 0.50 0.44 0.43 0.39 0.43 0.52 0.73 0.88 0.88 0.77 0.63 0.47 0.36 0.34 0.31 0.23 0.19 0.20 0.21 0.24 0.25 0.28 0.30
1.13 1.28 1.37 1.33 1.29 1.39 1.37 1.24 1.30 1.28 1.16 1.19 1.07 0.92 0.76 0.65 0.59 0.54 0.50 0.54 0.60 0.52 0.47 0.40 0.40 0.36 0.43 0.57 0.70 0.73 0.66 0.56 0.44 0.36 0.30 0.23 0.18 0.16 0.18 0.21 0.23 0.26 0.28
1.52 1.63 1.59 1.80 1.86 1.83 1.83 1.76 1.85 1.84 1.57 1.41 1.63 1.55 1.11 0.81 0.69 0.67 0.64 0.59 0.58 0.59 0.57 0.54 0.48 0.40 0.34 0.34 0.39 0.53 0.58 0.58 0.52 0.42 0.35 0.27 0.21 0.18 0.16 0.20 0.24 0.28 0.30
1.86 1.79 1.86 2.06 2.10 2.19 2.28 2.11 2.20 2.25 1.92 1.63 1.96 2.29 1.77 1.35 0.83 0.61 0.63 0.65 0.65 0.65 0.64 0.56 0.54 0.50 0.41 0.40 0.28 0.33 0.45 0.54 0.57 0.51 0.45 0.38 0.29 0.22 0.17 0.17 0.23 0.29 0.30
2.25 2.14 2.09 2.21 2.22 2.28 2.44 2.47 2.41 2.45 2.33 2.02 1.99 2.36 2.15 1.82 1.41 0.83 0.66 0.69 0.74 0.73 0.74 0.73 0.66 0.60 0.51 0.52 0.49 0.35 0.32 0.37 0.51 0.53 0.53 0.46 0.38 0.31 0.23 0.21 0.24 0.27 0.26
2.41 2.37 2.31 2.37 2.37 2.31 2.39 2.47 2.46 2.63 2.75 2.45 2.21 1.99 1.85 1.82 1.79 1.35 0.88 0.75 0.83 0.84 0.84 0.75 0.72 0.75 0.70 0.62 0.62 0.48 0.36 0.32 0.42 0.53 0.58 0.59 0.52 0.40 0.33 0.28 0.29 0.27 0.25
2.12 2.11 2.21 2.36 2.37 2.33 2.33 2.49 2.60 2.77 2.71 2.60 2.44 2.31 2.12 1.91 1.55 1.57 1.44 1.14 1.00 0.87 0.90 0.94 0.91 0.92 0.89 0.87 0.92 0.64 0.46 0.33 0.34 0.47 0.57 0.63 0.64 0.55 0.46 0.38 0.32 0.30 0.32
1.93 1.85 1.94 2.04 2.13 2.18 2.16 2.19 2.33 2.47 2.61 2.73 2.63 2.45 2.32 2.17 1.96 1.81 1.51 1.36 1.33 1.10 0.96 0.93 0.98 0.98 1.02 1.02 0.97 0.92 0.65 0.46 0.34 0.36 0.45 0.54 0.64 0.68 0.63 0.57 0.48 0.40 0.40
1.85 1.79 1.74 1.82 1.90 1.94 2.04 2.20 2.16 2.18 2.33 2.50 2.49 2.43 2.38 2.17 2.03 2.05 1.87 1.53 1.42 1.22 1.10 0.99 0.93 0.94 0.92 0.96 1.04 1.02 0.75 0.62 0.44 0.35 0.36 0.36 0.43 0.52 0.61 0.71 0.77 0.73 0.70
1.46 1.44 1.48 1.57 1.74 1.83 1.92 2.03 2.05 2.02 2.07 2.13 2.17 2.25 2.28 2.18 1.97 1.90 1.93 2.00 1.73 1.43 1.22 1.05 0.95 0.90 0.89 0.89 1.01 1.08 0.75 0.63 0.52 0.43 0.38 0.33 0.34 0.38 0.47 0.58 0.73 0.86 1.03
1.08 1.13 1.16 1.29 1.49 1.63 1.69 1.77 1.89 1.90 1.93 1.92 1.98 2.03 1.99 2.04 1.93 1.77 1.73 1.80 1.88 1.67 1.50 1.28 1.03 0.87 0.91 0.88 0.92 0.77 0.69 0.69 0.57 0.47 0.43 0.37 0.32 0.32 0.34 0.41 0.48 0.53 0.58
0.97 1.06 1.07 1.13 1.24 1.33 1.45 1.61 1.73 1.80 1.81 1.74 1.73 1.78 1.81 1.87 1.92 1.89 1.84 1.78 1.74 1.69 1.60 1.40 1.10 0.84 0.90 0.93 1.00 0.83 0.82 0.89 0.71 0.55 0.45 0.40 0.36 0.32 0.29 0.30 0.30 0.28 0.30
0.95 1.00 1.05 1.09 1.12 1.20 1.25 1.36 1.49 1.60 1.59 1.57 1.48 1.51 1.62 1.68 1.86 1.92 1.89 1.81 1.78 1.71 1.55 1.46 1.21 0.94 0.90 0.95 0.98 0.91 0.91 0.88 0.75 0.64 0.53 0.48 0.42 0.39 0.37 0.33 0.31 0.28 0.24
0.79 0.90 1.03 1.02 1.03 1.08 1.16 1.25 1.34 1.37 1.41 1.35 1.26 1.27 1.37 1.45 1.60 1.75 1.85 1.76 1.75 1.70 1.67 1.61 1.38 1.14 1.02 0.99 0.98 0.94 0.86 0.83 0.83 0.77 0.65 0.57 0.52 0.49 0.45 0.41 0.37 0.34 0.31
0.74 0.88 1.02 1.13 1.05 0.96 1.05 1.13 1.19 1.20 1.17 1.11 1.09 1.09 1.14 1.20 1.31 1.44 1.58 1.68 1.68 1.63 1.72 1.69 1.47 1.23 1.08 0.99 0.99 0.97 0.91 0.93 0.87 0.83 0.75 0.66 0.60 0.54 0.49 0.48 0.47 0.43 0.38
0.60 0.68 0.82 0.93 0.98 0.94 0.90 0.90 0.96 1.10 1.06 0.97 0.88 0.87 0.90 0.93 1.00 1.14 1.28 1.43 1.58 1.69 1.77 1.77 1.61 1.33 1.13 1.05 1.03 1.08 1.09 0.99 0.97 0.89 0.86 0.80 0.79 0.74 0.65 0.58 0.52 0.47 0.44
0.47 0.54 0.70 0.88 0.94 0.93 0.96 0.96 0.88 0.91 0.96 0.97 0.89 0.79 0.73 0.73 0.81 0.90 1.00 1.24 1.43 1.58 1.71 1.74 1.65 1.48 1.28 1.19 1.09 1.03 1.11 1.19 1.20 1.07 1.03 0.93 0.86 0.75 0.67 0.60 0.53 0.46 0.41
0.42 0.45 0.53 0.69 0.85 0.83 0.98 1.02 0.96 0.88 0.89 0.87 0.86 0.86 0.85 0.79 0.68 0.62 0.66 0.83 1.06 1.27 1.44 1.53 1.54 1.43 1.28 1.21 1.25 1.21 1.12 1.13 1.22 1.12 1.09 1.17 1.07 0.93 0.82 0.70 0.64 0.56 0.48
0.38 0.41 0.47 0.59 0.74 0.88 0.91 0.81 0.90 0.91 0.87 0.87 0.82 0.83 0.87 0.85 0.87 0.76 0.68 0.66 0.72 0.89 1.10 1.28 1.31 1.27 1.34 1.28 1.21 1.15 1.07 1.02 1.01 1.02 1.03 1.12 1.10 1.00 0.88 0.84 0.84 0.74 0.67
0.37 0.39 0.43 0.49 0.57 0.76 0.80 0.70 0.88 0.92 0.92 0.90 0.88 0.89 0.92 0.95 0.92 1.01 0.98 0.89 0.84 0.84 0.94 0.86 0.96 1.21 1.28 1.28 1.27 1.28 1.26 1.14 1.04 0.99 0.93 0.98 0.97 0.92 0.82 0.77 0.81 0.74 0.66
0.39 0.38 0.38 0.41 0.43 0.52 0.61 0.58 0.71 0.86 0.96 0.95 0.84 0.83 0.88 0.91 1.09 1.13 1.05 1.03 0.97 0.93 1.07 1.07 1.07 1.10 1.14 1.13 1.14 1.22 1.26 1.19 1.14 1.04 0.90 0.81 0.81 0.86 0.87 0.80 0.79 0.80 0.73
0.46 0.41 0.39 0.37 0.40 0.42 0.55 0.44 0.55 0.72 0.88 0.97 0.91 0.86 1.01 0.97 0.99 0.93 0.88 1.08 1.06 0.96 0.88 0.84 0.85 0.89 0.90 0.94 0.99 1.02 1.13 1.11 1.03 1.03 0.89 0.80 0.79 0.83 0.86 0.79 0.71 0.70 0.71

GEFSMA_prec_meanprecacc_126.txt.gz
Total_Precipitation_Accumulation
0.73 0.75 0.69 0.73 0.69 0.68 0.70 0.71 0.58 0.55 0.53 0.43 0.39 0.41 0.43 0.38 0.45 0.47 0.52 0.64 0.90 1.13 1.07 0.92 0.81 0.66 0.59 0.57 0.53 0.53 0.56 0.55 0.55 0.57 0.54 0.48 0.50 0.51 0.43 0.46 0.53 0.49 0.45
0.62 0.74 0.72 0.77 0.69 0.71 0.78 0.71 0.64 0.64 0.61 0.52 0.41 0.43 0.44 0.40 0.44 0.50 0.55 0.66 0.79 1.12 1.36 1.25 1.13 0.96 0.75 0.62 0.56 0.58 0.54 0.48 0.49 0.53 0.48 0.41 0.42 0.39 0.33 0.37 0.47 0.50 0.47
0.62 0.74 0.78 0.77 0.74 0.77 0.80 0.83 0.82 0.77 0.67 0.57 0.49 0.46 0.44 0.44 0.47 0.49 0.50 0.64 0.64 0.70 1.04 1.32 1.38 1.29 1.03 0.78 0.63 0.56 0.53 0.48 0.45 0.48 0.46 0.36 0.34 0.31 0.29 0.31 0.40 0.40 0.41
0.67 0.87 0.92 0.80 0.85 0.94 0.98 0.99 0.95 0.87 0.76 0.70 0.69 0.59 0.49 0.46 0.49 0.52 0.52 0.54 0.52 0.45 0.53 0.68 0.81 0.99 1.15 1.08 0.86 0.66 0.59 0.47 0.39 0.42 0.40 0.31 0.27 0.25 0.27 0.31 0.32 0.35 0.39
0.89 1.06 1.13 1.04 1.01 1.15 1.11 1.01 1.01 1.00 0.90 0.87 0.84 0.80 0.63 0.53 0.53 0.52 0.58 0.65 0.61 0.53 0.51 0.44 0.48 0.58 0.81 1.00 0.98 0.85 0.69 0.53 0.41 0.39 0.35 0.26 0.21 0.22 0.24 0.25 0.27 0.32 0.35
1.13 1.28 1.37 1.33 1.29 1.39 1.37 1.24 1.31 1.29 1.18 1.20 1.10 0.95 0.82 0.72 0.67 0.65 0.63 0.68 0.72 0.61 0.58 0.48 0.44 0.39 0.49 0.65 0.80 0.83 0.73 0.62 0.50 0.41 0.35 0.27 0.20 0.18 0.20 0.24 0.25 0.28 0.30
1.52 1.63 1.59 1.80 1.87 1.84 1.83 1.76 1.86 1.86 1.59 1.42 1.64 1.58 1.16 0.87 0.76 0.77 0.76 0.73 0.73 0.71 0.68 0.64 0.54 0.44 0.37 0.39 0.46 0.63 0.68 0.65 0.58 0.48 0.39 0.31 0.24 0.20 0.19 0.22 0.26 0.30 0.32
1.86 1.79 1.86 2.06 2.11 2.20 2.28 2.12 2.21 2.26 1.94 1.65 1.97 2.33 1.83 1.41 0.87 0.68 0.74 0.79 0.82 0.80 0.76 0.69 0.64 0.56 0.45 0.43 0.32 0.39 0.54 0.64 0.64 0.59 0.52 0.42 0.32 0.25 0.19 0.19 0.25 0.32 0.32
2.25 2.14 2.09 2.22 2.23 2.29 2.45 2.48 2.42 2.46 2.34 2.04 2.01 2.39 2.20 1.87 1.45 0.89 0.76 0.81 0.90 0.91 0.91 0.90 0.81 0.72 0.59 0.57 0.54 0.41 0.38 0.45 0.59 0.63 0.62 0.54 0.44 0.36 0.27 0.24 0.26 0.30 0.28
2.41 2.37 2.31 2.38 2.37 2.32 2.40 2.48 2.46 2.64 2.77 2.48 2.24 2.01 1.88 1.87 1.84 1.39 0.96 0.86 0.97 1.01 1.01 0.92 0.90 0.89 0.83 0.71 0.69 0.53 0.42 0.38 0.50 0.62 0.68 0.69 0.60 0.47 0.39 0.33 0.33 0.32 0.30
2.13 2.11 2.22 2.37 2.37 2.34 2.34 2.50 2.62 2.78 2.74 2.64 2.47 2.34 2.15 1.94 1.59 1.61 1.48 1.20 1.11 1.00 1.05 1.09 1.05 1.05 1.02 1.00 1.02 0.72 0.53 0.40 0.41 0.56 0.65 0.72 0.73 0.63 0.54 0.44 0.37 0.35 0.38
1.94 1.86 1.95 2.05 2.13 2.18 2.17 2.20 2.35 2.49 2.64 2.76 2.67 2.48 2.35 2.19 1.99 1.85 1.56 1.40 1.40 1.21 1.10 1.06 1.10 1.12 1.18 1.17 1.09 1.02 0.72 0.52 0.40 0.42 0.52 0.61 0.70 0.76 0.72 0.65 0.55 0.47 0.46
1.85 1.80 1.76 1.83 1.91 1.95 2.06 2.21 2.18 2.20 2.36 2.53 2.53 2.46 2.42 2.20 2.07 2.10 1.92 1.59 1.47 1.30 1.21 1.12 1.05 1.07 1.08 1.12 1.19 1.15 0.83 0.68 0.50 0.40 0.40 0.41 0.48 0.58 0.68 0.80 0.87 0.84 0.81
1.46 1.45 1.49 1.59 1.75 1.85 1.95 2.06 2.08 2.05 2.10 2.17 2.21 2.29 2.33 2.22 2.00 1.93 1.96 2.03 1.76 1.47 1.29 1.15 1.06 1.02 1.01 1.02 1.14 1.21 0.84 0.70 0.57 0.48 0.43 0.38 0.38 0.42 0.51 0.62 0.80 0.96 1.14
1.08 1.13 1.18 1.31 1.52 1.65 1.71 1.81 1.91 1.93 1.97 1.96 2.02 2.07 2.04 2.07 1.95 1.80 1.76 1.83 1.91 1.70 1.54 1.35 1.14 0.96 1.01 0.98 1.02 0.86 0.77 0.77 0.64 0.52 0.47 0.41 0.36 0.36 0.37 0.44 0.51 0.56 0.63
0.97 1.06 1.08 1.14 1.25 1.35 1.46 1.64 1.76 1.83 1.84 1.79 1.77 1.82 1.85 1.91 1.94 1.92 1.87 1.83 1.78 1.72 1.63 1.44 1.16 0.91 0.97 1.02 1.10 0.92 0.88 0.97 0.79 0.61 0.50 0.44 0.40 0.35 0.32 0.32 0.32 0.31 0.32
0.95 1.00 1.05 1.10 1.12 1.21 1.27 1.38 1.52 1.63 1.63 1.61 1.53 1.56 1.66 1.72 1.89 1.94 1.91 1.84 1.83 1.74 1.58 1.49 1.24 1.02 1.00 1.04 1.08 1.00 0.99 0.96 0.82 0.72 0.60 0.53 0.46 0.43 0.40 0.36 0.34 0.30 0.26
0.79 0.90 1.04 1.03 1.04 1.08 1.16 1.26 1.35 1.39 1.45 1.39 1.30 1.30 1.40 1.49 1.62 1.77 1.88 1.79 1.79 1.74 1.70 1.64 1.41 1.19 1.10 1.07 1.07 1.03 0.94 0.93 0.92 0.85 0.70 0.61 0.56 0.52 0.48 0.43 0.40 0.37 0.35
0.74 0.88 1.02 1.14 1.06 0.97 1.05 1.14 1.19 1.21 1.20 1.14 1.10 1.10 1.15 1.22 1.33 1.47 1.61 1.71 1.70 1.66 1.75 1.72 1.50 1.26 1.14 1.08 1.08 1.05 0.98 1.00 0.94 0.90 0.81 0.70 0.64 0.58 0.53 0.51 0.49 0.45 0.40
0.61 0.68 0.82 0.94 0.99 0.95 0.90 0.91 0.96 1.11 1.09 0.99 0.90 0.88 0.91 0.94 1.01 1.16 1.29 1.45 1.60 1.71 1.80 1.80 1.62 1.34 1.16 1.11 1.11 1.16 1.16 1.05 1.04 0.95 0.92 0.85 0.83 0.78 0.68 0.61 0.55 0.50 0.46
0.47 0.54 0.70 0.88 0.94 0.94 0.97 0.97 0.89 0.93 0.98 0.98 0.90 0.81 0.74 0.74 0.82 0.91 1.01 1.26 1.44 1.59 1.73 1.78 1.68 1.49 1.29 1.21 1.13 1.11 1.19 1.28 1.26 1.12 1.07 0.97 0.89 0.78 0.70 0.63 0.56 0.48 0.42
0.42 0.45 0.53 0.69 0.85 0.84 0.99 1.04 0.98 0.89 0.89 0.88 0.87 0.87 0.86 0.81 0.69 0.64 0.68 0.84 1.07 1.28 1.45 1.55 1.57 1.44 1.29 1.23 1.27 1.24 1.19 1.22 1.30 1.18 1.16 1.23 1.12 0.96 0.84 0.72 0.66 0.59 0.50
0.38 0.41 0.47 0.59 0.74 0.89 0.91 0.82 0.91 0.91 0.88 0.88 0.84 0.84 0.88 0.86 0.88 0.77 0.70 0.68 0.73 0.90 1.12 1.30 1.33 1.29 1.35 1.29 1.23 1.17 1.10 1.07 1.08 1.11 1.12 1.19 1.16 1.05 0.91 0.86 0.87 0.76 0.69
0.37 0.39 0.43 0.49 0.57 0.76 0.81 0.72 0.89 0.92 0.93 0.92 0.90 0.91 0.93 0.97 0.94 1.02 0.99 0.90 0.85 0.85 0.95 0.87 0.97 1.22 1.30 1.29 1.28 1.30 1.28 1.16 1.07 1.04 1.00 1.04 1.03 0.97 0.86 0.81 0.85 0.77 0.69
0.39 0.38 0.38 0.41 0.44 0.53 0.62 0.59 0.73 0.87 0.97 0.96 0.86 0.86 0.90 0.93 1.12 1.15 1.06 1.04 0.98 0.94 1.08 1.08 1.08 1.12 1.15 1.14 1.15 1.23 1.27 1.20 1.15 1.05 0.94 0.85 0.85 0.91 0.92 0.84 0.82 0.84 0.76
0.46 0.41 0.39 0.37 0.40 0.42 0.55 0.45 0.56 0.73 0.89 0.98 0.92 0.88 1.03 0.99 1.00 0.94 0.90 1.09 1.07 0.97 0.88 0.85 0.87 0.91 0.92 0.96 1.00 1.03 1.14 1.13 1.05 1.04 0.91 0.82 0.80 0.86 0.89 0.82 0.74 0.72 0.73

GEFSMA_prec_meanprecacc_132.txt.gz
Total_Precipitation_Accumulation
0.73 0.75 0.69 0.73 0.69 0.68 0.70 0.71 0.59 0.56 0.54 0.44 0.41 0.43 0.46 0.40 0.46 0.49 0.56 0.69 0.97 1.22 1.18 1.05 0.92 0.76 0.68 0.64 0.60 0.60 0.65 0.63 0.60 0.60 0.58 0.53 0.58 0.59 0.50 0.50 0.58 0.55 0.51
0.62 0.74 0.72 0.77 0.69 0.71 0.79 0.71 0.64 0.65 0.64 0.54 0.44 0.45 0.47 0.42 0.47 0.53 0.58 0.71 0.87 1.20 1.43 1.35 1.24 1.06 0.85 0.71 0.63 0.65 0.61 0.56 0.56 0.58 0.52 0.45 0.46 0.46 0.41 0.44 0.52 0.55 0.53
0.62 0.74 0.78 0.77 0.74 0.77 0.81 0.83 0.82 0.77 0.68 0.59 0.51 0.48 0.46 0.46 0.50 0.53 0.55 0.70 0.70 0.76 1.09 1.40 1.48 1.40 1.13 0.91 0.74 0.62 0.59 0.55 0.52 0.53 0.51 0.40 0.38 0.36 0.36 0.38 0.45 0.45 0.47
0.67 0.87 0.92 0.80 0.85 0.95 0.99 1.00 0.96 0.87 0.77 0.72 0.71 0.61 0.52 0.49 0.52 0.56 0.56 0.59 0.56 0.49 0.57 0.73 0.89 1.08 1.25 1.22 1.01 0.76 0.67 0.55 0.47 0.48 0.45 0.37 0.31 0.29 0.31 0.36 0.37 0.40 0.45
0.89 1.06 1.13 1.04 1.01 1.15 1.12 1.01 1.01 1.01 0.91 0.88 0.87 0.83 0.67 0.57 0.56 0.55 0.61 0.69 0.66 0.57 0.57 0.50 0.54 0.64 0.91 1.11 1.14 1.01 0.81 0.63 0.50 0.46 0.41 0.30 0.25 0.26 0.28 0.29 0.30 0.37 0.41
1.13 1.28 1.37 1.33 1.29 1.39 1.38 1.25 1.31 1.30 1.18 1.21 1.11 0.98 0.85 0.78 0.74 0.70 0.69 0.75 0.77 0.67 0.65 0.54 0.50 0.44 0.56 0.75 0.93 0.99 0.88 0.73 0.60 0.49 0.41 0.31 0.24 0.23 0.25 0.29 0.29 0.33 0.36
1.52 1.63 1.59 1.80 1.87 1.84 1.83 1.76 1.86 1.87 1.59 1.43 1.65 1.60 1.19 0.91 0.81 0.82 0.82 0.81 0.81 0.78 0.76 0.71 0.59 0.48 0.41 0.46 0.55 0.77 0.83 0.78 0.70 0.59 0.48 0.37 0.29 0.25 0.23 0.28 0.32 0.34 0.36
1.86 1.79 1.86 2.06 2.11 2.20 2.28 2.12 2.22 2.27 1.95 1.65 1.99 2.35 1.85 1.44 0.91 0.72 0.79 0.85 0.90 0.88 0.84 0.74 0.69 0.61 0.49 0.47 0.36 0.49 0.70 0.79 0.77 0.71 0.62 0.51 0.38 0.29 0.24 0.25 0.31 0.38 0.36
2.26 2.14 2.09 2.22 2.23 2.29 2.45 2.48 2.42 2.46 2.35 2.06 2.03 2.41 2.22 1.88 1.48 0.92 0.80 0.86 0.96 0.99 0.99 0.97 0.87 0.78 0.65 0.62 0.57 0.46 0.46 0.60 0.77 0.78 0.74 0.63 0.51 0.41 0.32 0.30 0.33 0.36 0.33
2.42 2.37 2.31 2.38 2.37 2.32 2.41 2.48 2.47 2.64 2.78 2.49 2.26 2.03 1.90 1.89 1.86 1.42 1.00 0.91 1.02 1.08 1.11 1.01 0.99 0.98 0.92 0.78 0.74 0.57 0.47 0.46 0.66 0.81 0.83 0.82 0.71 0.55 0.45 0.39 0.40 0.39 0.37
2.13 2.11 2.22 2.37 2.37 2.34 2.35 2.51 2.63 2.79 2.74 2.64 2.49 2.34 2.15 1.95 1.60 1.63 1.50 1.24 1.17 1.07 1.13 1.21 1.16 1.16 1.11 1.07 1.07 0.77 0.58 0.46 0.51 0.72 0.84 0.89 0.86 0.74 0.63 0.51 0.45 0.44 0.46
1.94 1.86 1.95 2.05 2.13 2.18 2.17 2.21 2.36 2.50 2.65 2.77 2.68 2.50 2.36 2.21 2.01 1.87 1.58 1.43 1.47 1.30 1.18 1.17 1.20 1.22 1.27 1.24 1.14 1.10 0.78 0.57 0.46 0.53 0.66 0.78 0.85 0.86 0.81 0.73 0.62 0.54 0.54
1.85 1.80 1.76 1.84 1.91 1.95 2.06 2.21 2.19 2.21 2.37 2.55 2.54 2.47 2.44 2.21 2.09 2.12 1.94 1.61 1.52 1.37 1.28 1.21 1.13 1.16 1.16 1.20 1.26 1.23 0.90 0.74 0.55 0.46 0.49 0.52 0.63 0.70 0.78 0.88 0.96 0.92 0.90
1.47 1.45 1.50 1.60 1.75 1.85 1.95 2.06 2.09 2.05 2.12 2.18 2.22 2.30 2.35 2.24 2.02 1.95 1.97 2.05 1.79 1.52 1.35 1.23 1.14 1.11 1.10 1.09 1.21 1.28 0.90 0.77 0.65 0.54 0.48 0.43 0.46 0.52 0.60 0.70 0.88 1.04 1.23
1.08 1.13 1.18 1.32 1.52 1.65 1.71 1.81 1.93 1.94 1.98 1.97 2.03 2.09 2.07 2.10 1.97 1.82 1.78 1.85 1.93 1.73 1.58 1.41 1.20 1.03 1.09 1.06 1.09 0.92 0.81 0.81 0.69 0.60 0.54 0.45 0.40 0.42 0.43 0.50 0.58 0.63 0.70
0.97 1.06 1.08 1.15 1.26 1.36 1.47 1.64 1.77 1.84 1.86 1.81 1.80 1.86 1.88 1.93 1.95 1.93 1.90 1.85 1.80 1.73 1.66 1.48 1.21 0.96 1.03 1.09 1.17 0.97 0.93 1.01 0.84 0.68 0.57 0.50 0.45 0.40 0.37 0.38 0.37 0.35 0.37
0.95 1.00 1.05 1.10 1.13 1.23 1.28 1.39 1.53 1.64 1.65 1.64 1.56 1.60 1.71 1.76 1.92 1.96 1.93 1.86 1.84 1.76 1.59 1.51 1.29 1.07 1.05 1.10 1.15 1.05 1.05 1.02 0.86 0.77 0.66 0.59 0.52 0.48 0.45 0.42 0.39 0.33 0.29
0.79 0.90 1.04 1.03 1.04 1.09 1.17 1.27 1.37 1.41 1.47 1.42 1.33 1.33 1.45 1.54 1.67 1.80 1.90 1.81 1.81 1.76 1.72 1.66 1.44 1.23 1.15 1.13 1.14 1.10 1.00 0.98 0.97 0.90 0.75 0.67 0.61 0.57 0.53 0.47 0.44 0.41 0.38
0.74 0.88 1.02 1.14 1.06 0.97 1.05 1.14 1.20 1.22 1.22 1.16 1.13 1.13 1.18 1.25 1.36 1.50 1.64 1.73 1.73 1.68 1.77 1.75 1.53 1.30 1.19 1.14 1.14 1.11 1.03 1.06 1.00 0.96 0.88 0.76 0.70 0.64 0.59 0.57 0.53 0.49 0.44
0.61 0.68 0.82 0.94 0.99 0.95 0.90 0.91 0.96 1.11 1.10 1.00 0.91 0.90 0.93 0.95 1.03 1.17 1.31 1.47 1.61 1.73 1.82 1.83 1.67 1.38 1.20 1.17 1.17 1.21 1.20 1.10 1.10 1.01 0.98 0.91 0.89 0.84 0.74 0.66 0.59 0.54 0.50
0.47 0.54 0.70 0.88 0.94 0.94 0.98 0.97 0.90 0.93 0.98 0.98 0.91 0.82 0.76 0.74 0.82 0.91 1.02 1.26 1.45 1.60 1.74 1.79 1.71 1.53 1.34 1.25 1.18 1.14 1.23 1.32 1.31 1.17 1.11 1.01 0.93 0.82 0.74 0.67 0.59 0.52 0.46
0.42 0.45 0.53 0.69 0.85 0.84 0.99 1.04 0.98 0.90 0.90 0.88 0.88 0.88 0.87 0.81 0.70 0.64 0.68 0.85 1.08 1.28 1.45 1.56 1.58 1.47 1.31 1.25 1.29 1.27 1.23 1.26 1.35 1.23 1.19 1.25 1.14 0.98 0.86 0.75 0.70 0.63 0.55
0.38 0.41 0.47 0.59 0.74 0.89 0.92 0.83 0.92 0.92 0.89 0.89 0.86 0.85 0.89 0.88 0.90 0.78 0.71 0.69 0.74 0.90 1.12 1.31 1.33 1.30 1.36 1.30 1.25 1.19 1.13 1.09 1.10 1.15 1.17 1.24 1.20 1.07 0.93 0.88 0.90 0.80 0.73
0.37 0.39 0.43 0.49 0.57 0.76 0.81 0.72 0.90 0.93 0.94 0.92 0.91 0.92 0.94 0.98 0.95 1.03 1.00 0.90 0.85 0.86 0.95 0.88 0.97 1.23 1.31 1.30 1.29 1.31 1.30 1.19 1.10 1.06 1.03 1.09 1.07 1.01 0.90 0.84 0.88 0.80 0.73
0.39 0.38 0.38 0.41 0.44 0.53 0.62 0.60 0.74 0.88 0.97 0.96 0.86 0.87 0.91 0.94 1.13 1.17 1.07 1.05 0.98 0.94 1.08 1.09 1.09 1.13 1.17 1.16 1.16 1.24 1.28 1.22 1.17 1.07 0.97 0.89 0.89 0.96 0.97 0.89 0.86 0.88 0.81
0.46 0.41 0.39 0.37 0.40 0.42 0.55 0.45 0.57 0.74 0.90 0.99 0.92 0.89 1.04 1.00 1.01 0.97 0.92 1.11 1.08 0.98 0.89 0.86 0.88 0.93 0.94 0.98 1.03 1.04 1.15 1.14 1.06 1.06 0.94 0.85 0.85 0.91 0.94 0.86 0.77 0.75 0.76